Observation data for Hackberry on 05/24/2019      Previous  Date  Next       Current Mesonet Observations  Soil Data  Daily Summary Page  Observations in Plain Language
KHA3 240500Z 14010KT 25/20 A2988 RMK A01 T02460199  RH  075%=      5-min Rain = 0
KHA3 240501Z 14012KT 25/20 A2988 RMK A01 T02450199  RH  075%=      5-min Rain = 0
KHA3 240502Z 14013KT 25/20 A2988 RMK A01 T02450199  RH  075%=      5-min Rain = 0
KHA3 240503Z 14012KT 25/20 A2988 RMK A01 T02460199  RH  075%=      5-min Rain = 0
KHA3 240504Z 14011KT 25/20 A2988 RMK A01 T02470199  RH  075%=      5-min Rain = 0
KHA3 240505Z 14012KT 25/20 A2988 RMK A01 T02470199  RH  075%=      5-min Rain = 0
KHA3 240506Z 15012KT 25/20 A2988 RMK A01 T02470199  RH  074%=      5-min Rain = 0
KHA3 240507Z 14009KT 25/20 A2988 RMK A01 T02470199  RH  075%=      5-min Rain = 0
KHA3 240508Z 14011KT 25/20 A2988 RMK A01 T02460199  RH  075%=      5-min Rain = 0
KHA3 240509Z 14013KT 25/20 A2988 RMK A01 T02460198  RH  075%=      5-min Rain = 0
KHA3 240510Z 14010G15KT 25/20 A2988 RMK A01 T02470199  RH  075%=      5-min Rain = 0
KHA3 240511Z 15011KT 25/20 A2988 RMK A01 T02460199  RH  075%=      5-min Rain = 0
KHA3 240512Z 14009KT 25/20 A2988 RMK A01 T02470199  RH  075%=      5-min Rain = 0
KHA3 240513Z 14008KT 25/20 A2988 RMK A01 T02460199  RH  075%=      5-min Rain = 0
KHA3 240514Z 13008KT 25/20 A2989 RMK A01 T02450199  RH  076%=      5-min Rain = 0
KHA3 240515Z 14009KT 24/20 A2989 RMK A01 T02440199  RH  076%=      5-min Rain = 0
KHA3 240516Z 13008KT 25/20 A2989 RMK A01 T02450199  RH  076%=      5-min Rain = 0
KHA3 240517Z 13008KT 25/20 A2989 RMK A01 T02450198  RH  075%=      5-min Rain = 0
KHA3 240518Z 13006KT 25/20 A2989 RMK A01 T02450199  RH  075%=      5-min Rain = 0
KHA3 240519Z 14007KT 25/20 A2989 RMK A01 T02450199  RH  076%=      5-min Rain = 0
KHA3 240520Z 13007KT 24/20 A2989 RMK A01 T02440199  RH  076%=      5-min Rain = 0
KHA3 240521Z 12008KT 24/20 A2989 RMK A01 T02440199  RH  076%=      5-min Rain = 0
KHA3 240522Z 13007KT 24/20 A2989 RMK A01 T02430199  RH  076%=      5-min Rain = 0
KHA3 240523Z 13008KT 24/20 A2989 RMK A01 T02420199  RH  077%=      5-min Rain = 0
KHA3 240524Z 13007KT 24/20 A2989 RMK A01 T02420199  RH  077%=      5-min Rain = 0
KHA3 240525Z 13006KT 24/20 A2989 RMK A01 T02420199  RH  077%=      5-min Rain = 0
KHA3 240526Z 12008KT 24/20 A2989 RMK A01 T02410199  RH  077%=      5-min Rain = 0
KHA3 240527Z 13006KT 24/20 A2989 RMK A01 T02410199  RH  077%=      5-min Rain = 0
KHA3 240528Z 13007KT 24/20 A2989 RMK A01 T02400199  RH  077%=      5-min Rain = 0
KHA3 240529Z 13007KT 24/20 A2989 RMK A01 T02400199  RH  078%=      5-min Rain = 0
KHA3 240530Z 13008KT 24/20 A2989 RMK A01 T02400199  RH  078%=      5-min Rain = 0
KHA3 240531Z 13009KT 24/20 A2989 RMK A01 T02400199  RH  077%=      5-min Rain = 0
KHA3 240532Z 13009KT 24/20 A2989 RMK A01 T02410199  RH  077%=      5-min Rain = 0
KHA3 240533Z 13009KT 24/20 A2988 RMK A01 T02400199  RH  077%=      5-min Rain = 0
KHA3 240534Z 13008KT 24/20 A2988 RMK A01 T02410199  RH  077%=      5-min Rain = 0
KHA3 240535Z 12010KT 24/20 A2988 RMK A01 T02400199  RH  077%=      5-min Rain = 0
KHA3 240536Z 12009KT 24/20 A2988 RMK A01 T02400198  RH  077%=      5-min Rain = 0
KHA3 240537Z 13008KT 24/20 A2988 RMK A01 T02400199  RH  078%=      5-min Rain = 0
KHA3 240538Z 13009KT 24/20 A2988 RMK A01 T02390199  RH  078%=      5-min Rain = 0
KHA3 240539Z 13009KT 24/20 A2988 RMK A01 T02390199  RH  078%=      5-min Rain = 0
KHA3 240540Z 13009KT 24/20 A2988 RMK A01 T02390199  RH  078%=      5-min Rain = 0
KHA3 240541Z 13010KT 24/20 A2988 RMK A01 T02390199  RH  078%=      5-min Rain = 0
KHA3 240542Z 13009KT 24/20 A2988 RMK A01 T02380198  RH  078%=      5-min Rain = 0
KHA3 240543Z 14010KT 24/20 A2988 RMK A01 T02380199  RH  078%=      5-min Rain = 0
KHA3 240544Z 13010KT 24/20 A2988 RMK A01 T02390199  RH  078%=      5-min Rain = 0
KHA3 240545Z 13009KT 24/20 A2988 RMK A01 T02390199  RH  078%=      5-min Rain = 0
KHA3 240546Z 13010KT 24/20 A2988 RMK A01 T02390198  RH  078%=      5-min Rain = 0
KHA3 240547Z 13009KT 24/20 A2988 RMK A01 T02400199  RH  078%=      5-min Rain = 0
KHA3 240548Z 13009KT 24/20 A2988 RMK A01 T02390199  RH  078%=      5-min Rain = 0
KHA3 240549Z 14008KT 24/20 A2988 RMK A01 T02390199  RH  078%=      5-min Rain = 0
KHA3 240550Z 14007KT 24/20 A2988 RMK A01 T02380199  RH  079%=      5-min Rain = 0
KHA3 240551Z 14008KT 24/20 A2988 RMK A01 T02360199  RH  079%=      5-min Rain = 0
KHA3 240552Z 14008KT 24/20 A2988 RMK A01 T02360199  RH  080%=      5-min Rain = 0
KHA3 240553Z 14009KT 24/20 A2988 RMK A01 T02360198  RH  080%=      5-min Rain = 0
KHA3 240554Z 14010KT 24/20 A2988 RMK A01 T02360198  RH  079%=      5-min Rain = 0
KHA3 240555Z 14008KT 24/20 A2988 RMK A01 T02370199  RH  079%=      5-min Rain = 0
KHA3 240556Z 14008KT 24/20 A2988 RMK A01 T02370199  RH  079%=      5-min Rain = 0
KHA3 240557Z 14008KT 24/20 A2988 RMK A01 T02370199  RH  079%=      5-min Rain = 0
KHA3 240558Z 14008KT 24/20 A2988 RMK A01 T02370199  RH  079%=      5-min Rain = 0
KHA3 240559Z 14009KT 24/20 A2988 RMK A01 T02360199  RH  079%=      5-min Rain = 0
KHA3 240600Z 13008KT 24/20 A2988 RMK A01 T02360199  RH  079%=      5-min Rain = 0
KHA3 240601Z 14009KT 24/20 A2988 RMK A01 T02360199  RH  080%=      5-min Rain = 0
KHA3 240602Z 14010KT 24/20 A2988 RMK A01 T02370199  RH  079%=      5-min Rain = 0
KHA3 240603Z 13009KT 24/20 A2988 RMK A01 T02370199  RH  079%=      5-min Rain = 0
KHA3 240604Z 14009KT 24/20 A2988 RMK A01 T02380199  RH  079%=      5-min Rain = 0
KHA3 240605Z 14010KT 24/20 A2988 RMK A01 T02380199  RH  079%=      5-min Rain = 0
KHA3 240606Z 14011KT 24/20 A2988 RMK A01 T02380199  RH  079%=      5-min Rain = 0
KHA3 240607Z 14011KT 24/20 A2988 RMK A01 T02380199  RH  079%=      5-min Rain = 0
KHA3 240608Z 14009KT 24/20 A2988 RMK A01 T02390199  RH  078%=      5-min Rain = 0
KHA3 240609Z 14010KT 24/20 A2988 RMK A01 T02390200  RH  079%=      5-min Rain = 0
KHA3 240610Z 14010KT 24/20 A2988 RMK A01 T02380199  RH  079%=      5-min Rain = 0
KHA3 240611Z 14011KT 24/20 A2988 RMK A01 T02380199  RH  079%=      5-min Rain = 0
KHA3 240612Z 14010KT 24/20 A2988 RMK A01 T02380199  RH  079%=      5-min Rain = 0
KHA3 240613Z 14011KT 24/20 A2988 RMK A01 T02390199  RH  078%=      5-min Rain = 0
KHA3 240614Z 14012KT 24/20 A2988 RMK A01 T02390199  RH  078%=      5-min Rain = 0
KHA3 240615Z 14010KT 24/20 A2988 RMK A01 T02390199  RH  078%=      5-min Rain = 0
KHA3 240616Z 14009KT 24/20 A2988 RMK A01 T02390200  RH  079%=      5-min Rain = 0
KHA3 240617Z 14011KT 24/20 A2988 RMK A01 T02380200  RH  079%=      5-min Rain = 0
KHA3 240618Z 14009KT 24/20 A2988 RMK A01 T02380200  RH  079%=      5-min Rain = 0
KHA3 240619Z 14010KT 24/20 A2988 RMK A01 T02380200  RH  079%=      5-min Rain = 0
KHA3 240620Z 14011KT 24/20 A2988 RMK A01 T02380200  RH  079%=      5-min Rain = 0
KHA3 240621Z 14009KT 24/20 A2988 RMK A01 T02380200  RH  079%=      5-min Rain = 0
KHA3 240622Z 14009KT 24/20 A2988 RMK A01 T02380200  RH  079%=      5-min Rain = 0
KHA3 240623Z 14009KT 24/20 A2988 RMK A01 T02380200  RH  079%=      5-min Rain = 0
KHA3 240624Z 14010KT 24/20 A2988 RMK A01 T02380200  RH  079%=      5-min Rain = 0
KHA3 240625Z 14009KT 24/20 A2988 RMK A01 T02380200  RH  079%=      5-min Rain = 0
KHA3 240626Z 15010G15KT 24/20 A2988 RMK A01 T02380201  RH  079%=      5-min Rain = 0
KHA3 240627Z 14010KT 24/20 A2988 RMK A01 T02380200  RH  079%=      5-min Rain = 0
KHA3 240628Z 14010KT 24/20 A2988 RMK A01 T02390200  RH  079%=      5-min Rain = 0
KHA3 240629Z 14009KT 24/20 A2988 RMK A01 T02390201  RH  079%=      5-min Rain = 0
KHA3 240630Z 15010KT 24/20 A2989 RMK A01 T02390201  RH  079%=      5-min Rain = 0
KHA3 240631Z 14008KT 24/20 A2989 RMK A01 T02390201  RH  079%=      5-min Rain = 0
KHA3 240632Z 15009KT 24/20 A2989 RMK A01 T02390201  RH  079%=      5-min Rain = 0
KHA3 240633Z 15009KT 24/20 A2989 RMK A01 T02390201  RH  079%=      5-min Rain = 0
KHA3 240634Z 15009KT 24/20 A2989 RMK A01 T02390201  RH  079%=      5-min Rain = 0
KHA3 240635Z 15009KT 24/20 A2989 RMK A01 T02390201  RH  079%=      5-min Rain = 0
KHA3 240636Z 15010KT 24/20 A2989 RMK A01 T02400201  RH  079%=      5-min Rain = 0
KHA3 240637Z 15007KT 24/20 A2989 RMK A01 T02400201  RH  079%=      5-min Rain = 0
KHA3 240638Z 15007KT 24/20 A2989 RMK A01 T02400201  RH  079%=      5-min Rain = 0
KHA3 240639Z 15008KT 24/20 A2989 RMK A01 T02400202  RH  079%=      5-min Rain = 0
KHA3 240640Z 15007KT 24/20 A2989 RMK A01 T02400202  RH  079%=      5-min Rain = 0
KHA3 240641Z 15009KT 24/20 A2989 RMK A01 T02390201  RH  079%=      5-min Rain = 0
KHA3 240642Z 14008KT 24/20 A2989 RMK A01 T02400202  RH  079%=      5-min Rain = 0
KHA3 240643Z 15008KT 24/20 A2989 RMK A01 T02400201  RH  079%=      5-min Rain = 0
KHA3 240644Z 15008KT 24/20 A2989 RMK A01 T02400202  RH  079%=      5-min Rain = 0
KHA3 240645Z 14008KT 24/20 A2989 RMK A01 T02400202  RH  079%=      5-min Rain = 0
KHA3 240646Z 15008KT 24/20 A299 RMK A01 T02400202  RH  079%=      5-min Rain = 0
KHA3 240647Z 15010KT 24/20 A299 RMK A01 T02400202  RH  079%=      5-min Rain = 0
KHA3 240648Z 15009KT 24/20 A299 RMK A01 T02410202  RH  079%=      5-min Rain = 0
KHA3 240649Z 16009KT 24/20 A299 RMK A01 T02410202  RH  079%=      5-min Rain = 0
KHA3 240650Z 16009KT 24/20 A299 RMK A01 T02400202  RH  079%=      5-min Rain = 0
KHA3 240651Z 16008KT 24/20 A299 RMK A01 T02410202  RH  079%=      5-min Rain = 0
KHA3 240652Z 15006KT 24/20 A299 RMK A01 T02410203  RH  079%=      5-min Rain = 0
KHA3 240653Z 15008KT 24/20 A299 RMK A01 T02400203  RH  080%=      5-min Rain = 0
KHA3 240654Z 16008KT 24/20 A299 RMK A01 T02400202  RH  079%=      5-min Rain = 0
KHA3 240655Z 16008KT 24/20 A299 RMK A01 T02400202  RH  079%=      5-min Rain = 0
KHA3 240656Z 15008KT 24/20 A299 RMK A01 T02410203  RH  079%=      5-min Rain = 0
KHA3 240657Z 15007KT 24/20 A299 RMK A01 T02410203  RH  079%=      5-min Rain = 0
KHA3 240658Z 15009KT 24/20 A299 RMK A01 T02410203  RH  079%=      5-min Rain = 0
KHA3 240659Z 16009KT 24/20 A299 RMK A01 T02410203  RH  079%=      5-min Rain = 0
KHA3 240700Z 16008KT 24/20 A2991 RMK A01 T02400203  RH  079%=      5-min Rain = 0
KHA3 240701Z 15009KT 24/20 A2991 RMK A01 T02400202  RH  079%=      5-min Rain = 0
KHA3 240702Z 16007KT 24/20 A2991 RMK A01 T02400202  RH  079%=      5-min Rain = 0
KHA3 240703Z 16007KT 24/20 A2991 RMK A01 T02400203  RH  079%=      5-min Rain = 0
KHA3 240704Z 15007KT 24/20 A2991 RMK A01 T02410203  RH  079%=      5-min Rain = 0
KHA3 240705Z 14008KT 24/20 A2991 RMK A01 T02400203  RH  079%=      5-min Rain = 0
KHA3 240706Z 15006KT 24/20 A2991 RMK A01 T02410203  RH  079%=      5-min Rain = 0
KHA3 240707Z 16007KT 24/20 A2991 RMK A01 T02400203  RH  080%=      5-min Rain = 0
KHA3 240708Z 15007KT 24/20 A2991 RMK A01 T02400203  RH  080%=      5-min Rain = 0
KHA3 240709Z 16006KT 24/20 A2991 RMK A01 T02400204  RH  080%=      5-min Rain = 0
KHA3 240710Z 15006KT 24/20 A2991 RMK A01 T02390203  RH  080%=      5-min Rain = 0
KHA3 240711Z 15007KT 24/20 A2991 RMK A01 T02390203  RH  080%=      5-min Rain = 0
KHA3 240712Z 15006KT 24/20 A2991 RMK A01 T02390203  RH  080%=      5-min Rain = 0
KHA3 240713Z 16006KT 24/20 A2991 RMK A01 T02390203  RH  081%=      5-min Rain = 0
KHA3 240714Z 15006KT 24/20 A2991 RMK A01 T02390204  RH  081%=      5-min Rain = 0
KHA3 240715Z 16007KT 24/20 A2991 RMK A01 T02380204  RH  081%=      5-min Rain = 0
KHA3 240716Z 16006KT 24/20 A2991 RMK A01 T02380203  RH  081%=      5-min Rain = 0
KHA3 240717Z 16006KT 24/20 A2991 RMK A01 T02380203  RH  081%=      5-min Rain = 0
KHA3 240718Z 16006KT 24/20 A2991 RMK A01 T02390204  RH  081%=      5-min Rain = 0
KHA3 240719Z 15006KT 24/20 A2991 RMK A01 T02380203  RH  081%=      5-min Rain = 0
KHA3 240720Z 15006KT 24/20 A2991 RMK A01 T02380204  RH  081%=      5-min Rain = 0
KHA3 240721Z 15006KT 24/20 A2991 RMK A01 T02380204  RH  081%=      5-min Rain = 0
KHA3 240722Z 15006KT 24/20 A2991 RMK A01 T02380204  RH  081%=      5-min Rain = 0
KHA3 240723Z 15006KT 24/20 A2991 RMK A01 T02370204  RH  082%=      5-min Rain = 0
KHA3 240724Z 14006KT 24/20 A2991 RMK A01 T02370204  RH  082%=      5-min Rain = 0
KHA3 240725Z 14007KT 24/20 A2991 RMK A01 T02370204  RH  082%=      5-min Rain = 0
KHA3 240726Z 14006KT 24/20 A2991 RMK A01 T02370204  RH  082%=      5-min Rain = 0
KHA3 240727Z 14006KT 24/20 A2991 RMK A01 T02370204  RH  082%=      5-min Rain = 0
KHA3 240728Z 14006KT 24/20 A2991 RMK A01 T02370203  RH  082%=      5-min Rain = 0
KHA3 240729Z 14005KT 24/20 A2991 RMK A01 T02370204  RH  082%=      5-min Rain = 0
KHA3 240730Z 14005KT 24/20 A2991 RMK A01 T02370204  RH  082%=      5-min Rain = 0
KHA3 240731Z 14005KT 24/20 A2992 RMK A01 T02360204  RH  082%=      5-min Rain = 0
KHA3 240732Z 14005KT 24/20 A2992 RMK A01 T02360204  RH  082%=      5-min Rain = 0
KHA3 240733Z 14005KT 24/20 A2992 RMK A01 T02360204  RH  082%=      5-min Rain = 0
KHA3 240734Z 14006KT 24/20 A2991 RMK A01 T02360204  RH  082%=      5-min Rain = 0
KHA3 240735Z 14006KT 24/20 A2991 RMK A01 T02360204  RH  082%=      5-min Rain = 0
KHA3 240736Z 14006KT 24/20 A2991 RMK A01 T02360204  RH  082%=      5-min Rain = 0
KHA3 240737Z 14006KT 24/20 A2991 RMK A01 T02360204  RH  082%=      5-min Rain = 0
KHA3 240738Z 14005KT 24/20 A2991 RMK A01 T02350203  RH  082%=      5-min Rain = 0
KHA3 240739Z 14004KT 24/20 A2992 RMK A01 T02350204  RH  082%=      5-min Rain = 0
KHA3 240740Z 14005KT 24/20 A2992 RMK A01 T02350204  RH  082%=      5-min Rain = 0
KHA3 240741Z 14006KT 24/20 A2992 RMK A01 T02360204  RH  083%=      5-min Rain = 0
KHA3 240742Z 14005KT 24/20 A2992 RMK A01 T02350204  RH  083%=      5-min Rain = 0
KHA3 240743Z 13005KT 24/20 A2992 RMK A01 T02350204  RH  083%=      5-min Rain = 0
KHA3 240744Z 14004KT 24/20 A2992 RMK A01 T02350204  RH  083%=      5-min Rain = 0
KHA3 240745Z 14005KT 24/20 A2992 RMK A01 T02350204  RH  083%=      5-min Rain = 0
KHA3 240746Z 13005KT 24/20 A2992 RMK A01 T02350204  RH  083%=      5-min Rain = 0
KHA3 240747Z 13005KT 24/20 A2992 RMK A01 T02350204  RH  083%=      5-min Rain = 0
KHA3 240748Z 13006KT 23/20 A2992 RMK A01 T02340204  RH  083%=      5-min Rain = 0
KHA3 240749Z 13006KT 24/20 A2992 RMK A01 T02350204  RH  083%=      5-min Rain = 0
KHA3 240750Z 13006KT 23/21 A2991 RMK A01 T02340205  RH  083%=      5-min Rain = 0
KHA3 240751Z 13007KT 23/21 A2991 RMK A01 T02340205  RH  084%=      5-min Rain = 0
KHA3 240752Z 13007KT 23/21 A2991 RMK A01 T02340205  RH  084%=      5-min Rain = 0
KHA3 240753Z 13007KT 23/20 A2991 RMK A01 T02330204  RH  084%=      5-min Rain = 0
KHA3 240754Z 13007KT 23/21 A2991 RMK A01 T02330205  RH  084%=      5-min Rain = 0
KHA3 240755Z 13007KT 23/21 A2991 RMK A01 T02330205  RH  084%=      5-min Rain = 0
KHA3 240756Z 13006KT 23/20 A2991 RMK A01 T02330204  RH  084%=      5-min Rain = 0
KHA3 240757Z 13006KT 23/20 A2992 RMK A01 T02330204  RH  084%=      5-min Rain = 0
KHA3 240758Z 13006KT 23/20 A2992 RMK A01 T02330204  RH  084%=      5-min Rain = 0
KHA3 240759Z 14006KT 23/20 A2992 RMK A01 T02330204  RH  083%=      5-min Rain = 0
KHA3 240800Z 13006KT 23/20 A2992 RMK A01 T02340204  RH  083%=      5-min Rain = 0
KHA3 240801Z 14006KT 23/21 A2992 RMK A01 T02340205  RH  083%=      5-min Rain = 0
KHA3 240802Z 13006KT 23/21 A2992 RMK A01 T02340205  RH  083%=      5-min Rain = 0
KHA3 240803Z 13006KT 23/21 A2992 RMK A01 T02340205  RH  084%=      5-min Rain = 0
KHA3 240804Z 13006KT 23/21 A2992 RMK A01 T02340205  RH  084%=      5-min Rain = 0
KHA3 240805Z 14006KT 23/21 A2992 RMK A01 T02340205  RH  084%=      5-min Rain = 0
KHA3 240810Z 14005KT 23/20 A2992 RMK A01 T02330204  RH  084%=      5-min Rain = 0
KHA3 240811Z 14005KT 23/21 A2992 RMK A01 T02330205  RH  084%=      5-min Rain = 0
KHA3 240812Z 14005KT 23/21 A2992 RMK A01 T02330205  RH  084%=      5-min Rain = 0
KHA3 240813Z 14006KT 23/21 A2992 RMK A01 T02330205  RH  084%=      5-min Rain = 0
KHA3 240814Z 14005KT 23/21 A2992 RMK A01 T02330205  RH  084%=      5-min Rain = 0
KHA3 240815Z 14005KT 23/21 A2992 RMK A01 T02330205  RH  084%=      5-min Rain = 0
KHA3 240816Z 14004KT 23/21 A2992 RMK A01 T02330206  RH  085%=      5-min Rain = 0
KHA3 240817Z 14005KT 23/21 A2992 RMK A01 T02330206  RH  085%=      5-min Rain = 0
KHA3 240818Z 14004KT 23/21 A2992 RMK A01 T02320205  RH  085%=      5-min Rain = 0
KHA3 240819Z 13004KT 23/21 A2992 RMK A01 T02320205  RH  085%=      5-min Rain = 0
KHA3 240820Z 13004KT 23/21 A2992 RMK A01 T02330206  RH  085%=      5-min Rain = 0
KHA3 240821Z 13004KT 23/21 A2992 RMK A01 T02320206  RH  085%=      5-min Rain = 0
KHA3 240822Z 14004KT 23/21 A2992 RMK A01 T02320206  RH  085%=      5-min Rain = 0
KHA3 240823Z 13004KT 23/21 A2992 RMK A01 T02310206  RH  086%=      5-min Rain = 0
KHA3 240824Z 13004KT 23/21 A2992 RMK A01 T02310206  RH  086%=      5-min Rain = 0
KHA3 240825Z 13004KT 23/21 A2992 RMK A01 T02310206  RH  086%=      5-min Rain = 0
KHA3 240826Z 13004KT 23/21 A2992 RMK A01 T02310206  RH  086%=      5-min Rain = 0
KHA3 240827Z 13005KT 23/21 A2992 RMK A01 T02310206  RH  086%=      5-min Rain = 0
KHA3 240828Z 13005KT 23/21 A2992 RMK A01 T02310206  RH  086%=      5-min Rain = 0
KHA3 240829Z 13005KT 23/21 A2992 RMK A01 T02310206  RH  086%=      5-min Rain = 0
KHA3 240830Z 13005KT 23/21 A2992 RMK A01 T02310206  RH  086%=      5-min Rain = 0
KHA3 240831Z 13005KT 23/21 A2992 RMK A01 T02300206  RH  086%=      5-min Rain = 0
KHA3 240832Z 14004KT 23/21 A2992 RMK A01 T02300206  RH  086%=      5-min Rain = 0
KHA3 240833Z 15004KT 23/21 A2992 RMK A01 T02300206  RH  086%=      5-min Rain = 0
KHA3 240834Z 14004KT 23/21 A2992 RMK A01 T02300206  RH  086%=      5-min Rain = 0
KHA3 240835Z 15004KT 23/21 A2992 RMK A01 T02300206  RH  086%=      5-min Rain = 0
KHA3 240836Z 15004KT 23/21 A2992 RMK A01 T02300206  RH  086%=      5-min Rain = 0
KHA3 240837Z 15004KT 23/21 A2992 RMK A01 T02300207  RH  087%=      5-min Rain = 0
KHA3 240838Z 15004KT 23/21 A2992 RMK A01 T02290207  RH  087%=      5-min Rain = 0
KHA3 240839Z 15004KT 23/21 A2992 RMK A01 T02290208  RH  088%=      5-min Rain = 0
KHA3 240840Z 15004KT 23/21 A2992 RMK A01 T02280208  RH  088%=      5-min Rain = 0
KHA3 240841Z 15005KT 23/21 A2992 RMK A01 T02280208  RH  088%=      5-min Rain = 0
KHA3 240842Z 15005KT 23/21 A2992 RMK A01 T02270208  RH  089%=      5-min Rain = 0
KHA3 240843Z 14005KT 23/21 A2991 RMK A01 T02270208  RH  089%=      5-min Rain = 0
KHA3 240844Z 14005KT 23/21 A2991 RMK A01 T02260208  RH  089%=      5-min Rain = 0
KHA3 240845Z 15004KT 23/21 A2991 RMK A01 T02260208  RH  090%=      5-min Rain = 0
KHA3 240846Z 14005KT 23/21 A2991 RMK A01 T02260209  RH  090%=      5-min Rain = 0
KHA3 240847Z 15005KT 23/21 A2991 RMK A01 T02250209  RH  090%=      5-min Rain = 0
KHA3 240848Z 15005KT 23/21 A2992 RMK A01 T02250208  RH  090%=      5-min Rain = 0
KHA3 240849Z 15004KT 23/21 A2992 RMK A01 T02250208  RH  090%=      5-min Rain = 0
KHA3 240850Z 15004KT 23/21 A2992 RMK A01 T02250209  RH  091%=      5-min Rain = 0
KHA3 240851Z 16004KT 22/21 A2992 RMK A01 T02240209  RH  091%=      5-min Rain = 0
KHA3 240852Z 15004KT 22/21 A2991 RMK A01 T02240209  RH  091%=      5-min Rain = 0
KHA3 240853Z 14004KT 22/21 A2991 RMK A01 T02230209  RH  092%=      5-min Rain = 0
KHA3 240854Z 14004KT 22/21 A2991 RMK A01 T02230209  RH  092%=      5-min Rain = 0
KHA3 240855Z 15004KT 22/21 A2991 RMK A01 T02220209  RH  092%=      5-min Rain = 0
KHA3 240856Z 16004KT 22/21 A2991 RMK A01 T02220208  RH  092%=      5-min Rain = 0
KHA3 240857Z 17005KT 22/21 A2991 RMK A01 T02220208  RH  092%=      5-min Rain = 0
KHA3 240858Z 18005KT 22/21 A2991 RMK A01 T02210207  RH  092%=      5-min Rain = 0
KHA3 240859Z 18004KT 22/21 A2991 RMK A01 T02220208  RH  092%=      5-min Rain = 0
KHA3 240900Z 20003KT 22/21 A2991 RMK A01 T02220208  RH  092%=      5-min Rain = 0
KHA3 240901Z 22002KT 22/21 A2991 RMK A01 T02220209  RH  092%=      5-min Rain = 0
KHA3 240902Z 21002KT 22/21 A2991 RMK A01 T02220209  RH  093%=      5-min Rain = 0
KHA3 240903Z 20003KT 22/21 A2991 RMK A01 T02210209  RH  092%=      5-min Rain = 0
KHA3 240904Z 20003KT 22/21 A2991 RMK A01 T02210209  RH  092%=      5-min Rain = 0
KHA3 240905Z 19003KT 22/21 A2991 RMK A01 T02210209  RH  093%=      5-min Rain = 0
KHA3 240906Z 19003KT 22/21 A2991 RMK A01 T02210209  RH  093%=      5-min Rain = 0
KHA3 240907Z 20003KT 22/21 A2991 RMK A01 T02210209  RH  093%=      5-min Rain = 0
KHA3 240908Z 19003KT 22/21 A2991 RMK A01 T02210210  RH  093%=      5-min Rain = 0
KHA3 240909Z 19003KT 22/21 A2991 RMK A01 T02210209  RH  093%=      5-min Rain = 0
KHA3 240910Z 18003KT 22/21 A2991 RMK A01 T02200209  RH  093%=      5-min Rain = 0
KHA3 240911Z 16004KT 22/21 A2991 RMK A01 T02210210  RH  093%=      5-min Rain = 0
KHA3 240912Z 16004KT 22/21 A2991 RMK A01 T02200209  RH  093%=      5-min Rain = 0
KHA3 240913Z 15004KT 22/21 A2991 RMK A01 T02200209  RH  094%=      5-min Rain = 0
KHA3 240914Z 15005KT 22/21 A2991 RMK A01 T02190209  RH  094%=      5-min Rain = 0
KHA3 240915Z 15005KT 22/21 A2991 RMK A01 T02190209  RH  094%=      5-min Rain = 0
KHA3 240916Z 14005KT 22/21 A2991 RMK A01 T02190209  RH  094%=      5-min Rain = 0
KHA3 240917Z 14005KT 22/21 A2991 RMK A01 T02190209  RH  094%=      5-min Rain = 0
KHA3 240918Z 14005KT 22/21 A2991 RMK A01 T02190209  RH  094%=      5-min Rain = 0
KHA3 240919Z 14005KT 22/21 A2991 RMK A01 T02190209  RH  094%=      5-min Rain = 0
KHA3 240920Z 13004KT 22/21 A2991 RMK A01 T02190209  RH  094%=      5-min Rain = 0
KHA3 240921Z 13005KT 22/21 A2991 RMK A01 T02200209  RH  093%=      5-min Rain = 0
KHA3 240922Z 13005KT 22/21 A2991 RMK A01 T02200209  RH  093%=      5-min Rain = 0
KHA3 240923Z 12004KT 22/21 A299 RMK A01 T02210208  RH  093%=      5-min Rain = 0
KHA3 240924Z 12005KT 22/21 A299 RMK A01 T02210209  RH  093%=      5-min Rain = 0
KHA3 240925Z 12005KT 22/21 A299 RMK A01 T02210209  RH  093%=      5-min Rain = 0
KHA3 240926Z 12005KT 22/21 A2991 RMK A01 T02210209  RH  093%=      5-min Rain = 0
KHA3 240927Z 12005KT 22/21 A2991 RMK A01 T02210209  RH  093%=      5-min Rain = 0
KHA3 240928Z 12006KT 22/21 A2991 RMK A01 T02210209  RH  093%=      5-min Rain = 0
KHA3 240929Z 11005KT 22/21 A2991 RMK A01 T02210209  RH  093%=      5-min Rain = 0
KHA3 240930Z 12006KT 22/21 A2991 RMK A01 T02210209  RH  093%=      5-min Rain = 0
KHA3 240931Z 12007KT 22/21 A2991 RMK A01 T02210209  RH  093%=      5-min Rain = 0
KHA3 240932Z 12007KT 22/21 A2991 RMK A01 T02210209  RH  093%=      5-min Rain = 0
KHA3 240933Z 12007KT 22/21 A2991 RMK A01 T02210209  RH  093%=      5-min Rain = 0
KHA3 240934Z 12006KT 22/21 A2991 RMK A01 T02210209  RH  093%=      5-min Rain = 0
KHA3 240935Z 12007KT 22/21 A2991 RMK A01 T02220209  RH  093%=      5-min Rain = 0
KHA3 240936Z 12007KT 22/21 A2991 RMK A01 T02220209  RH  093%=      5-min Rain = 0
KHA3 240937Z 11006KT 22/21 A2991 RMK A01 T02220209  RH  093%=      5-min Rain = 0
KHA3 240938Z 11006KT 22/21 A2991 RMK A01 T02220209  RH  093%=      5-min Rain = 0
KHA3 240939Z 11006KT 22/21 A2991 RMK A01 T02220209  RH  093%=      5-min Rain = 0
KHA3 240940Z 11006KT 22/21 A2991 RMK A01 T02220209  RH  093%=      5-min Rain = 0
KHA3 240941Z 11006KT 22/21 A2991 RMK A01 T02220209  RH  093%=      5-min Rain = 0
KHA3 240942Z 11005KT 22/21 A2991 RMK A01 T02210209  RH  093%=      5-min Rain = 0
KHA3 240943Z 11006KT 22/21 A2991 RMK A01 T02210209  RH  093%=      5-min Rain = 0
KHA3 240944Z 11007KT 22/21 A2991 RMK A01 T02210209  RH  093%=      5-min Rain = 0
KHA3 240945Z 12007KT 22/21 A2991 RMK A01 T02210209  RH  093%=      5-min Rain = 0
KHA3 240946Z 11006KT 22/21 A2991 RMK A01 T02210209  RH  093%=      5-min Rain = 0
KHA3 240947Z 11006KT 22/21 A2991 RMK A01 T02210209  RH  093%=      5-min Rain = 0
KHA3 240948Z 12006KT 22/21 A2991 RMK A01 T02210209  RH  093%=      5-min Rain = 0
KHA3 240949Z 12006KT 22/21 A2991 RMK A01 T02210209  RH  093%=      5-min Rain = 0
KHA3 240950Z 12006KT 22/21 A2991 RMK A01 T02210209  RH  093%=      5-min Rain = 0
KHA3 240951Z 12005KT 22/21 A2991 RMK A01 T02210209  RH  093%=      5-min Rain = 0
KHA3 240952Z 13006KT 22/21 A2991 RMK A01 T02210209  RH  093%=      5-min Rain = 0
KHA3 240953Z 13006KT 22/21 A2991 RMK A01 T02210209  RH  093%=      5-min Rain = 0
KHA3 240954Z 12006KT 22/21 A2991 RMK A01 T02210210  RH  093%=      5-min Rain = 0
KHA3 240955Z 12006KT 22/21 A2991 RMK A01 T02210209  RH  093%=      5-min Rain = 0
KHA3 240956Z 13007KT 22/21 A2991 RMK A01 T02210209  RH  093%=      5-min Rain = 0
KHA3 240957Z 12006KT 22/21 A2991 RMK A01 T02210209  RH  093%=      5-min Rain = 0
KHA3 240958Z 13006KT 22/21 A2991 RMK A01 T02210209  RH  093%=      5-min Rain = 0
KHA3 240959Z 12006KT 22/21 A2991 RMK A01 T02210210  RH  093%=      5-min Rain = 0
KHA3 241000Z 12007KT 22/21 A2991 RMK A01 T02210210  RH  093%=      5-min Rain = 0
KHA3 241001Z 12006KT 22/21 A2991 RMK A01 T02210210  RH  093%=      5-min Rain = 0
KHA3 241002Z 13006KT 22/21 A2991 RMK A01 T02220210  RH  093%=      5-min Rain = 0
KHA3 241003Z 13006KT 22/21 A2991 RMK A01 T02210210  RH  093%=      5-min Rain = 0
KHA3 241004Z 13006KT 22/21 A2991 RMK A01 T02210210  RH  093%=      5-min Rain = 0
KHA3 241005Z 13006KT 22/21 A2991 RMK A01 T02210210  RH  093%=      5-min Rain = 0
KHA3 241006Z 13006KT 22/21 A2991 RMK A01 T02220210  RH  093%=      5-min Rain = 0
KHA3 241007Z 13007KT 22/21 A2991 RMK A01 T02220210  RH  093%=      5-min Rain = 0
KHA3 241008Z 13007KT 22/21 A2991 RMK A01 T02220210  RH  093%=      5-min Rain = 0
KHA3 241009Z 12007KT 22/21 A2991 RMK A01 T02220210  RH  093%=      5-min Rain = 0
KHA3 241010Z 12008KT 22/21 A2991 RMK A01 T02220210  RH  093%=      5-min Rain = 0
KHA3 241011Z 12007KT 22/21 A2991 RMK A01 T02220210  RH  093%=      5-min Rain = 0
KHA3 241012Z 12007KT 22/21 A2991 RMK A01 T02220210  RH  093%=      5-min Rain = 0
KHA3 241013Z 12007KT 22/21 A2991 RMK A01 T02230210  RH  093%=      5-min Rain = 0
KHA3 241014Z 12007KT 22/21 A2991 RMK A01 T02220210  RH  092%=      5-min Rain = 0
KHA3 241015Z 12007KT 22/21 A2991 RMK A01 T02220210  RH  092%=      5-min Rain = 0
KHA3 241016Z 12007KT 22/21 A2991 RMK A01 T02230210  RH  092%=      5-min Rain = 0
KHA3 241017Z 12008KT 22/21 A2991 RMK A01 T02230210  RH  092%=      5-min Rain = 0
KHA3 241018Z 13007KT 22/21 A2991 RMK A01 T02230210  RH  092%=      5-min Rain = 0
KHA3 241019Z 13007KT 22/21 A2992 RMK A01 T02230210  RH  092%=      5-min Rain = 0
KHA3 241020Z 13007KT 22/21 A2992 RMK A01 T02230210  RH  093%=      5-min Rain = 0
KHA3 241021Z 13007KT 22/21 A2992 RMK A01 T02230210  RH  092%=      5-min Rain = 0
KHA3 241022Z 12007KT 22/21 A2992 RMK A01 T02230210  RH  092%=      5-min Rain = 0
KHA3 241023Z 13007KT 22/21 A2992 RMK A01 T02220210  RH  092%=      5-min Rain = 0
KHA3 241024Z 13007KT 22/21 A2992 RMK A01 T02230210  RH  092%=      5-min Rain = 0
KHA3 241025Z 13007KT 22/21 A2992 RMK A01 T02220210  RH  092%=      5-min Rain = 0
KHA3 241026Z 13007KT 22/21 A2992 RMK A01 T02230210  RH  093%=      5-min Rain = 0
KHA3 241027Z 13008KT 22/21 A2992 RMK A01 T02230210  RH  093%=      5-min Rain = 0
KHA3 241028Z 13007KT 22/21 A2992 RMK A01 T02230211  RH  093%=      5-min Rain = 0
KHA3 241029Z 13007KT 22/21 A2992 RMK A01 T02230210  RH  093%=      5-min Rain = 0
KHA3 241030Z 13007KT 22/21 A2992 RMK A01 T02230210  RH  093%=      5-min Rain = 0
KHA3 241031Z 13007KT 22/21 A2992 RMK A01 T02230210  RH  093%=      5-min Rain = 0
KHA3 241032Z 13007KT 22/21 A2992 RMK A01 T02230210  RH  093%=      5-min Rain = 0
KHA3 241033Z 13008KT 22/21 A2992 RMK A01 T02230210  RH  093%=      5-min Rain = 0
KHA3 241034Z 13008KT 22/21 A2992 RMK A01 T02230211  RH  093%=      5-min Rain = 0
KHA3 241035Z 12008KT 22/21 A2992 RMK A01 T02230210  RH  093%=      5-min Rain = 0
KHA3 241036Z 12008KT 22/21 A2992 RMK A01 T02230211  RH  092%=      5-min Rain = 0
KHA3 241037Z 13008KT 22/21 A2992 RMK A01 T02230210  RH  092%=      5-min Rain = 0
KHA3 241038Z 13007KT 22/21 A2992 RMK A01 T02230210  RH  092%=      5-min Rain = 0
KHA3 241039Z 13008KT 22/21 A2992 RMK A01 T02230210  RH  093%=      5-min Rain = 0
KHA3 241040Z 13007KT 22/21 A2992 RMK A01 T02230211  RH  093%=      5-min Rain = 0
KHA3 241041Z 13008KT 22/21 A2992 RMK A01 T02230211  RH  093%=      5-min Rain = 0
KHA3 241042Z 12008KT 22/21 A2992 RMK A01 T02230211  RH  093%=      5-min Rain = 0
KHA3 241043Z 12009KT 22/21 A2992 RMK A01 T02230211  RH  093%=      5-min Rain = 0
KHA3 241044Z 13007KT 22/21 A2992 RMK A01 T02230210  RH  092%=      5-min Rain = 0
KHA3 241045Z 12009KT 22/21 A2992 RMK A01 T02240211  RH  092%=      5-min Rain = 0
KHA3 241046Z 12009KT 22/21 A2992 RMK A01 T02240211  RH  092%=      5-min Rain = 0
KHA3 241047Z 12008KT 22/21 A2992 RMK A01 T02240211  RH  093%=      5-min Rain = 0
KHA3 241048Z 13008KT 22/21 A2992 RMK A01 T02240211  RH  093%=      5-min Rain = 0
KHA3 241049Z 13008KT 22/21 A2992 RMK A01 T02240211  RH  093%=      5-min Rain = 0
KHA3 241050Z 13006KT 22/21 A2992 RMK A01 T02240212  RH  093%=      5-min Rain = 0
KHA3 241051Z 13007KT 22/21 A2992 RMK A01 T02240212  RH  093%=      5-min Rain = 0
KHA3 241052Z 13009KT 22/21 A2992 RMK A01 T02230211  RH  093%=      5-min Rain = 0
KHA3 241053Z 13008KT 22/21 A2992 RMK A01 T02230211  RH  093%=      5-min Rain = 0
KHA3 241054Z 12008KT 22/21 A2992 RMK A01 T02230211  RH  093%=      5-min Rain = 0
KHA3 241055Z 13007KT 22/21 A2992 RMK A01 T02230211  RH  093%=      5-min Rain = 0
KHA3 241056Z 13008KT 22/21 A2992 RMK A01 T02230211  RH  093%=      5-min Rain = 0
KHA3 241057Z 13007KT 22/21 A2992 RMK A01 T02230211  RH  093%=      5-min Rain = 0
KHA3 241058Z 13009KT 22/21 A2993 RMK A01 T02230211  RH  093%=      5-min Rain = 0
KHA3 241059Z 13008KT 22/21 A2993 RMK A01 T02230211  RH  093%=      5-min Rain = 0
KHA3 241100Z 12009KT 22/21 A2992 RMK A01 T02230211  RH  093%=      5-min Rain = 0
KHA3 241101Z 13008KT 22/21 A2993 RMK A01 T02230211  RH  093%=      5-min Rain = 0
KHA3 241102Z 13009KT 22/21 A2993 RMK A01 T02230211  RH  093%=      5-min Rain = 0
KHA3 241103Z 13009KT 22/21 A2993 RMK A01 T02230211  RH  093%=      5-min Rain = 0
KHA3 241104Z 13009KT 22/21 A2993 RMK A01 T02230211  RH  093%=      5-min Rain = 0
KHA3 241105Z 12010KT 22/21 A2993 RMK A01 T02230211  RH  093%=      5-min Rain = 0
KHA3 241106Z 13009KT 22/21 A2993 RMK A01 T02240211  RH  093%=      5-min Rain = 0
KHA3 241107Z 13010KT 22/21 A2993 RMK A01 T02230211  RH  093%=      5-min Rain = 0
KHA3 241108Z 13010KT 22/21 A2993 RMK A01 T02240211  RH  092%=      5-min Rain = 0
KHA3 241109Z 13009KT 22/21 A2993 RMK A01 T02240211  RH  092%=      5-min Rain = 0
KHA3 241110Z 13010KT 22/21 A2993 RMK A01 T02240211  RH  092%=      5-min Rain = 0
KHA3 241111Z 13010KT 22/21 A2993 RMK A01 T02240211  RH  092%=      5-min Rain = 0
KHA3 241112Z 13009KT 22/21 A2993 RMK A01 T02240210  RH  092%=      5-min Rain = 0
KHA3 241113Z 13009KT 23/21 A2993 RMK A01 T02250211  RH  092%=      5-min Rain = 0
KHA3 241114Z 13010KT 22/21 A2993 RMK A01 T02240211  RH  092%=      5-min Rain = 0
KHA3 241115Z 14009KT 23/21 A2993 RMK A01 T02250210  RH  092%=      5-min Rain = 0
KHA3 241116Z 13009KT 23/21 A2993 RMK A01 T02250210  RH  091%=      5-min Rain = 0
KHA3 241117Z 13010KT 23/21 A2993 RMK A01 T02250210  RH  091%=      5-min Rain = 0
KHA3 241118Z 13010KT 23/21 A2993 RMK A01 T02250210  RH  091%=      5-min Rain = 0
KHA3 241119Z 14009KT 23/21 A2993 RMK A01 T02250210  RH  091%=      5-min Rain = 0
KHA3 241120Z 14010KT 23/21 A2993 RMK A01 T02250210  RH  091%=      5-min Rain = 0
KHA3 241121Z 14011KT 23/21 A2993 RMK A01 T02250210  RH  091%=      5-min Rain = 0
KHA3 241122Z 15011KT 23/21 A2993 RMK A01 T02250210  RH  091%=      5-min Rain = 0
KHA3 241123Z 14010KT 23/21 A2993 RMK A01 T02250210  RH  091%=      5-min Rain = 0
KHA3 241124Z 14011KT 23/21 A2993 RMK A01 T02250210  RH  091%=      5-min Rain = 0
KHA3 241125Z 15010KT 23/21 A2993 RMK A01 T02250210  RH  091%=      5-min Rain = 0
KHA3 241126Z 15009KT 22/21 A2993 RMK A01 T02240210  RH  091%=      5-min Rain = 0
KHA3 241127Z 14010KT 22/21 A2993 RMK A01 T02240210  RH  091%=      5-min Rain = 0
KHA3 241128Z 14011KT 22/21 A2993 RMK A01 T02240209  RH  091%=      5-min Rain = 0
KHA3 241129Z 15010KT 22/21 A2993 RMK A01 T02240209  RH  091%=      5-min Rain = 0
KHA3 241130Z 14010KT 22/21 A2993 RMK A01 T02240209  RH  091%=      5-min Rain = 0
KHA3 241131Z 15009KT 22/21 A2993 RMK A01 T02240209  RH  091%=      5-min Rain = 0
KHA3 241132Z 14010KT 22/21 A2993 RMK A01 T02240209  RH  091%=      5-min Rain = 0
KHA3 241133Z 14009KT 22/21 A2993 RMK A01 T02240209  RH  091%=      5-min Rain = 0
KHA3 241134Z 15007KT 22/21 A2993 RMK A01 T02240209  RH  091%=      5-min Rain = 0
KHA3 241135Z 15008KT 22/21 A2993 RMK A01 T02230209  RH  092%=      5-min Rain = 0
KHA3 241136Z 15009KT 22/21 A2993 RMK A01 T02230209  RH  092%=      5-min Rain = 0
KHA3 241137Z 15009KT 22/21 A2993 RMK A01 T02230209  RH  092%=      5-min Rain = 0
KHA3 241138Z 14009KT 22/21 A2993 RMK A01 T02230209  RH  092%=      5-min Rain = 0
KHA3 241139Z 14008KT 22/21 A2993 RMK A01 T02230209  RH  092%=      5-min Rain = 0
KHA3 241140Z 15007KT 22/21 A2993 RMK A01 T02230209  RH  092%=      5-min Rain = 0
KHA3 241141Z 14007KT 22/21 A2993 RMK A01 T02230209  RH  092%=      5-min Rain = 0
KHA3 241142Z 14008KT 22/21 A2993 RMK A01 T02230209  RH  092%=      5-min Rain = 0
KHA3 241143Z 14008KT 22/21 A2993 RMK A01 T02220209  RH  092%=      5-min Rain = 0
KHA3 241144Z 14009KT 22/21 A2993 RMK A01 T02230209  RH  092%=      5-min Rain = 0
KHA3 241145Z 14008KT 22/21 A2993 RMK A01 T02230209  RH  092%=      5-min Rain = 0
KHA3 241146Z 14010KT 22/21 A2993 RMK A01 T02230209  RH  092%=      5-min Rain = 0
KHA3 241147Z 14009KT 22/21 A2993 RMK A01 T02230209  RH  092%=      5-min Rain = 0
KHA3 241148Z 14009KT 22/21 A2993 RMK A01 T02230208  RH  092%=      5-min Rain = 0
KHA3 241149Z 14009KT 22/21 A2993 RMK A01 T02230208  RH  092%=      5-min Rain = 0
KHA3 241150Z 14009KT 22/21 A2993 RMK A01 T02230208  RH  091%=      5-min Rain = 0
KHA3 241151Z 14009KT 22/21 A2993 RMK A01 T02230209  RH  092%=      5-min Rain = 0
KHA3 241152Z 13007KT 22/21 A2993 RMK A01 T02230209  RH  092%=      5-min Rain = 0
KHA3 241153Z 14007KT 22/21 A2993 RMK A01 T02230209  RH  092%=      5-min Rain = 0
KHA3 241154Z 13008KT 22/21 A2993 RMK A01 T02230209  RH  092%=      5-min Rain = 0
KHA3 241155Z 14008KT 22/21 A2993 RMK A01 T02230209  RH  092%=      5-min Rain = 0
KHA3 241156Z 14009KT 22/21 A2993 RMK A01 T02230209  RH  092%=      5-min Rain = 0
KHA3 241157Z 14009KT 22/21 A2993 RMK A01 T02230209  RH  092%=      5-min Rain = 0
KHA3 241158Z 14008KT 22/21 A2994 RMK A01 T02230209  RH  092%=      5-min Rain = 0
KHA3 241159Z 14008KT 22/21 A2994 RMK A01 T02230209  RH  092%=      5-min Rain = 0
KHA3 241200Z 14007KT 22/21 A2994 RMK A01 T02230209  RH  092%=      5-min Rain = 0
KHA3 241201Z 14008KT 22/21 A2994 RMK A01 T02230210  RH  092%=      5-min Rain = 0
KHA3 241202Z 14008KT 22/21 A2994 RMK A01 T02230210  RH  092%=      5-min Rain = 0
KHA3 241203Z 14006KT 22/21 A2994 RMK A01 T02220210  RH  092%=      5-min Rain = 0
KHA3 241204Z 14007KT 22/21 A2994 RMK A01 T02220210  RH  093%=      5-min Rain = 0
KHA3 241205Z 14007KT 22/21 A2994 RMK A01 T02220210  RH  093%=      5-min Rain = 0
KHA3 241206Z 14007KT 22/21 A2994 RMK A01 T02220210  RH  093%=      5-min Rain = 0
KHA3 241207Z 14007KT 22/21 A2994 RMK A01 T02220210  RH  093%=      5-min Rain = 0
KHA3 241208Z 14006KT 22/21 A2994 RMK A01 T02220210  RH  093%=      5-min Rain = 0
KHA3 241209Z 14007KT 22/21 A2994 RMK A01 T02220209  RH  093%=      5-min Rain = 0
KHA3 241210Z 14007KT 22/21 A2994 RMK A01 T02220209  RH  093%=      5-min Rain = 0
KHA3 241211Z 14009KT 22/21 A2994 RMK A01 T02220209  RH  092%=      5-min Rain = 0
KHA3 241212Z 14009KT 22/21 A2994 RMK A01 T02230210  RH  092%=      5-min Rain = 0
KHA3 241213Z 14008KT 22/21 A2994 RMK A01 T02230210  RH  092%=      5-min Rain = 0
KHA3 241214Z 15007KT 22/21 A2994 RMK A01 T02230210  RH  092%=      5-min Rain = 0
KHA3 241215Z 15009KT 22/21 A2994 RMK A01 T02230210  RH  093%=      5-min Rain = 0
KHA3 241216Z 14008KT 22/21 A2994 RMK A01 T02230211  RH  093%=      5-min Rain = 0
KHA3 241217Z 14008KT 22/21 A2994 RMK A01 T02220210  RH  093%=      5-min Rain = 0
KHA3 241218Z 14008KT 22/21 A2994 RMK A01 T02220211  RH  093%=      5-min Rain = 0
KHA3 241219Z 14009KT 22/21 A2994 RMK A01 T02220211  RH  093%=      5-min Rain = 0
KHA3 241220Z 15009KT 22/21 A2994 RMK A01 T02220210  RH  093%=      5-min Rain = 0
KHA3 241221Z 14008KT 22/21 A2994 RMK A01 T02220211  RH  093%=      5-min Rain = 0
KHA3 241222Z 14008KT 22/21 A2994 RMK A01 T02220211  RH  094%=      5-min Rain = 0
KHA3 241223Z 14007KT 22/21 A2994 RMK A01 T02220211  RH  094%=      5-min Rain = 0
KHA3 241224Z 14009KT 22/21 A2994 RMK A01 T02210211  RH  094%=      5-min Rain = 0
KHA3 241225Z 14007KT 22/21 A2994 RMK A01 T02210211  RH  094%=      5-min Rain = 0
KHA3 241226Z 14009KT 22/21 A2994 RMK A01 T02210211  RH  094%=      5-min Rain = 0
KHA3 241227Z 14008KT 22/21 A2994 RMK A01 T02220211  RH  094%=      5-min Rain = 0
KHA3 241228Z 15007KT 22/21 A2994 RMK A01 T02210211  RH  094%=      5-min Rain = 0
KHA3 241229Z 15008KT 22/21 A2994 RMK A01 T02210211  RH  094%=      5-min Rain = 0
KHA3 241230Z 14008KT 22/21 A2994 RMK A01 T02210212  RH  094%=      5-min Rain = 0
KHA3 241231Z 14008KT 22/21 A2994 RMK A01 T02210212  RH  094%=      5-min Rain = 0
KHA3 241232Z 14008KT 22/21 A2994 RMK A01 T02210211  RH  094%=      5-min Rain = 0
KHA3 241233Z 14009KT 22/21 A2994 RMK A01 T02210212  RH  094%=      5-min Rain = 0
KHA3 241234Z 14008KT 22/21 A2994 RMK A01 T02210212  RH  094%=      5-min Rain = 0
KHA3 241235Z 15009KT 22/21 A2994 RMK A01 T02210211  RH  094%=      5-min Rain = 0
KHA3 241236Z 14007KT 22/21 A2994 RMK A01 T02210211  RH  094%=      5-min Rain = 0
KHA3 241237Z 14007KT 22/21 A2994 RMK A01 T02210212  RH  095%=      5-min Rain = 0
KHA3 241238Z 14007KT 22/21 A2994 RMK A01 T02210212  RH  095%=      5-min Rain = 0
KHA3 241239Z 15009KT 22/21 A2994 RMK A01 T02210212  RH  095%=      5-min Rain = 0
KHA3 241240Z 15008KT 22/21 A2994 RMK A01 T02210212  RH  094%=      5-min Rain = 0
KHA3 241241Z 14007KT 22/21 A2994 RMK A01 T02210212  RH  094%=      5-min Rain = 0
KHA3 241242Z 14007KT 22/21 A2994 RMK A01 T02210212  RH  094%=      5-min Rain = 0
KHA3 241243Z 15007KT 22/21 A2994 RMK A01 T02210212  RH  095%=      5-min Rain = 0
KHA3 241244Z 15008KT 22/21 A2994 RMK A01 T02210212  RH  095%=      5-min Rain = 0
KHA3 241245Z 14009KT 22/21 A2994 RMK A01 T02210212  RH  095%=      5-min Rain = 0
KHA3 241246Z 15008KT 22/21 A2994 RMK A01 T02210212  RH  094%=      5-min Rain = 0
KHA3 241247Z 15008KT 22/21 A2994 RMK A01 T02220212  RH  094%=      5-min Rain = 0
KHA3 241248Z 15008KT 22/21 A2994 RMK A01 T02220212  RH  094%=      5-min Rain = 0
KHA3 241249Z 15009KT 22/21 A2994 RMK A01 T02220212  RH  094%=      5-min Rain = 0
KHA3 241250Z 15007KT 22/21 A2994 RMK A01 T02220212  RH  094%=      5-min Rain = 0
KHA3 241251Z 15007KT 22/21 A2994 RMK A01 T02220213  RH  094%=      5-min Rain = 0
KHA3 241252Z 15007KT 22/21 A2994 RMK A01 T02220212  RH  094%=      5-min Rain = 0
KHA3 241253Z 15007KT 22/21 A2994 RMK A01 T02220212  RH  094%=      5-min Rain = 0
KHA3 241254Z 15007KT 22/21 A2994 RMK A01 T02220212  RH  094%=      5-min Rain = 0
KHA3 241255Z 15006KT 22/21 A2994 RMK A01 T02220213  RH  094%=      5-min Rain = 0
KHA3 241256Z 15009KT 22/21 A2994 RMK A01 T02220213  RH  094%=      5-min Rain = 0
KHA3 241257Z 15008KT 22/21 A2994 RMK A01 T02220213  RH  094%=      5-min Rain = 0
KHA3 241258Z 15007KT 22/21 A2994 RMK A01 T02220212  RH  094%=      5-min Rain = 0
KHA3 241259Z 15007KT 22/21 A2994 RMK A01 T02220213  RH  094%=      5-min Rain = 0
KHA3 241300Z 14008KT 22/21 A2994 RMK A01 T02220213  RH  094%=      5-min Rain = 0
KHA3 241301Z 14008KT 22/21 A2994 RMK A01 T02220212  RH  094%=      5-min Rain = 0
KHA3 241302Z 15008KT 22/21 A2994 RMK A01 T02220212  RH  094%=      5-min Rain = 0
KHA3 241303Z 14008KT 22/21 A2994 RMK A01 T02220212  RH  094%=      5-min Rain = 0
KHA3 241304Z 14007KT 22/21 A2994 RMK A01 T02220212  RH  094%=      5-min Rain = 0
KHA3 241305Z 15008KT 22/21 A2994 RMK A01 T02230213  RH  094%=      5-min Rain = 0
KHA3 241306Z 14007KT 22/21 A2994 RMK A01 T02230213  RH  094%=      5-min Rain = 0
KHA3 241307Z 15007KT 22/21 A2994 RMK A01 T02230213  RH  094%=      5-min Rain = 0
KHA3 241308Z 14007KT 22/21 A2994 RMK A01 T02230212  RH  094%=      5-min Rain = 0
KHA3 241309Z 15006KT 22/21 A2994 RMK A01 T02230213  RH  094%=      5-min Rain = 0
KHA3 241310Z 15008KT 22/21 A2994 RMK A01 T02230213  RH  094%=      5-min Rain = 0
KHA3 241311Z 15007KT 22/21 A2994 RMK A01 T02230213  RH  094%=      5-min Rain = 0
KHA3 241312Z 15006KT 22/21 A2994 RMK A01 T02230213  RH  094%=      5-min Rain = 0
KHA3 241313Z 15006KT 22/21 A2994 RMK A01 T02230213  RH  094%=      5-min Rain = 0
KHA3 241314Z 15007KT 22/21 A2994 RMK A01 T02240214  RH  094%=      5-min Rain = 0
KHA3 241315Z 15008KT 22/21 A2994 RMK A01 T02240214  RH  094%=      5-min Rain = 0
KHA3 241316Z 15008KT 22/21 A2994 RMK A01 T02240214  RH  094%=      5-min Rain = 0
KHA3 241317Z 14007KT 23/21 A2994 RMK A01 T02250214  RH  094%=      5-min Rain = 0
KHA3 241318Z 15008KT 22/21 A2994 RMK A01 T02240213  RH  093%=      5-min Rain = 0
KHA3 241319Z 14008KT 23/21 A2994 RMK A01 T02250214  RH  093%=      5-min Rain = 0
KHA3 241320Z 14009KT 23/21 A2994 RMK A01 T02250214  RH  093%=      5-min Rain = 0
KHA3 241321Z 14009KT 23/21 A2994 RMK A01 T02250213  RH  093%=      5-min Rain = 0
KHA3 241322Z 14009KT 23/21 A2994 RMK A01 T02250213  RH  093%=      5-min Rain = 0
KHA3 241323Z 14009KT 23/21 A2994 RMK A01 T02260213  RH  093%=      5-min Rain = 0
KHA3 241324Z 14008KT 23/21 A2994 RMK A01 T02260214  RH  093%=      5-min Rain = 0
KHA3 241325Z 14008KT 23/21 A2994 RMK A01 T02260213  RH  092%=      5-min Rain = 0
KHA3 241326Z 13008KT 23/21 A2994 RMK A01 T02260214  RH  092%=      5-min Rain = 0
KHA3 241327Z 14008KT 23/21 A2994 RMK A01 T02270214  RH  092%=      5-min Rain = 0
KHA3 241328Z 14009KT 23/21 A2994 RMK A01 T02270214  RH  092%=      5-min Rain = 0
KHA3 241329Z 14009KT 23/21 A2994 RMK A01 T02270213  RH  092%=      5-min Rain = 0
KHA3 241330Z 14010KT 23/21 A2994 RMK A01 T02270213  RH  092%=      5-min Rain = 0
KHA3 241331Z 14009KT 23/21 A2994 RMK A01 T02270214  RH  092%=      5-min Rain = 0
KHA3 241332Z 14008KT 23/21 A2994 RMK A01 T02280214  RH  092%=      5-min Rain = 0
KHA3 241333Z 14010KT 23/22 A2994 RMK A01 T02280215  RH  092%=      5-min Rain = 0
KHA3 241334Z 14010KT 23/21 A2994 RMK A01 T02280214  RH  091%=      5-min Rain = 0
KHA3 241335Z 14011KT 23/21 A2994 RMK A01 T02290213  RH  091%=      5-min Rain = 0
KHA3 241336Z 14013KT 23/21 A2994 RMK A01 T02290213  RH  091%=      5-min Rain = 0
KHA3 241337Z 14012KT 23/21 A2994 RMK A01 T02300213  RH  090%=      5-min Rain = 0
KHA3 241338Z 14010KT 23/21 A2994 RMK A01 T02300213  RH  090%=      5-min Rain = 0
KHA3 241339Z 15010KT 23/21 A2994 RMK A01 T02300214  RH  091%=      5-min Rain = 0
KHA3 241340Z 15010KT 23/22 A2994 RMK A01 T02310215  RH  091%=      5-min Rain = 0
KHA3 241341Z 15012KT 23/22 A2994 RMK A01 T02310215  RH  091%=      5-min Rain = 0
KHA3 241342Z 14011KT 23/21 A2994 RMK A01 T02310214  RH  090%=      5-min Rain = 0
KHA3 241343Z 14012KT 23/21 A2994 RMK A01 T02320214  RH  090%=      5-min Rain = 0
KHA3 241344Z 14013KT 23/21 A2994 RMK A01 T02320214  RH  090%=      5-min Rain = 0
KHA3 241345Z 14014KT 23/21 A2994 RMK A01 T02320214  RH  089%=      5-min Rain = 0
KHA3 241346Z 15012KT 23/21 A2994 RMK A01 T02320213  RH  089%=      5-min Rain = 0
KHA3 241347Z 14010KT 23/21 A2994 RMK A01 T02330214  RH  089%=      5-min Rain = 0
KHA3 241348Z 15013KT 23/22 A2994 RMK A01 T02330215  RH  090%=      5-min Rain = 0
KHA3 241349Z 14012KT 23/21 A2994 RMK A01 T02330214  RH  089%=      5-min Rain = 0
KHA3 241350Z 15011KT 23/22 A2994 RMK A01 T02330215  RH  090%=      5-min Rain = 0
KHA3 241351Z 15010KT 23/22 A2994 RMK A01 T02330215  RH  090%=      5-min Rain = 0
KHA3 241352Z 15011KT 23/22 A2994 RMK A01 T02330215  RH  090%=      5-min Rain = 0
KHA3 241353Z 15011KT 23/22 A2994 RMK A01 T02330215  RH  090%=      5-min Rain = 0
KHA3 241354Z 15013KT 23/21 A2994 RMK A01 T02330214  RH  089%=      5-min Rain = 0
KHA3 241355Z 15013KT 23/21 A2994 RMK A01 T02330214  RH  089%=      5-min Rain = 0
KHA3 241356Z 15013KT 23/21 A2994 RMK A01 T02330214  RH  089%=      5-min Rain = 0
KHA3 241357Z 15012KT 23/21 A2994 RMK A01 T02330214  RH  089%=      5-min Rain = 0
KHA3 241358Z 15013KT 23/21 A2994 RMK A01 T02330214  RH  089%=      5-min Rain = 0
KHA3 241359Z 15010KT 23/21 A2994 RMK A01 T02320214  RH  089%=      5-min Rain = 0
KHA3 241400Z 14012KT 23/21 A2994 RMK A01 T02320214  RH  090%=      5-min Rain = 0
KHA3 241401Z 14011KT 23/21 A2994 RMK A01 T02320213  RH  089%=      5-min Rain = 0
KHA3 241402Z 14011KT 23/21 A2994 RMK A01 T02320213  RH  089%=      5-min Rain = 0
KHA3 241403Z 14013KT 23/21 A2994 RMK A01 T02320214  RH  089%=      5-min Rain = 0
KHA3 241404Z 15014KT 23/21 A2994 RMK A01 T02320213  RH  089%=      5-min Rain = 0
KHA3 241405Z 15011KT 23/21 A2994 RMK A01 T02330213  RH  089%=      5-min Rain = 0
KHA3 241406Z 15010KT 23/21 A2994 RMK A01 T02340214  RH  089%=      5-min Rain = 0
KHA3 241407Z 15011KT 23/21 A2994 RMK A01 T02330214  RH  089%=      5-min Rain = 0
KHA3 241408Z 15014KT 23/21 A2994 RMK A01 T02330214  RH  089%=      5-min Rain = 0
KHA3 241409Z 15012KT 23/21 A2994 RMK A01 T02330213  RH  089%=      5-min Rain = 0
KHA3 241410Z 15009KT 23/21 A2994 RMK A01 T02340214  RH  089%=      5-min Rain = 0
KHA3 241411Z 14014KT 23/21 A2994 RMK A01 T02340214  RH  089%=      5-min Rain = 0
KHA3 241412Z 15012KT 23/21 A2994 RMK A01 T02340214  RH  088%=      5-min Rain = 0
KHA3 241413Z 15014KT 24/22 A2994 RMK A01 T02350215  RH  088%=      5-min Rain = 0
KHA3 241414Z 15013KT 24/21 A2994 RMK A01 T02360214  RH  087%=      5-min Rain = 0
KHA3 241415Z 16013KT 24/22 A2994 RMK A01 T02370215  RH  087%=      5-min Rain = 0
KHA3 241416Z 15012KT 24/22 A2994 RMK A01 T02370215  RH  087%=      5-min Rain = 0
KHA3 241417Z 15014KT 24/22 A2994 RMK A01 T02380215  RH  087%=      5-min Rain = 0
KHA3 241418Z 15014G19KT 24/22 A2994 RMK A01 T02380215  RH  087%=      5-min Rain = 0
KHA3 241419Z 15013KT 24/22 A2994 RMK A01 T02390216  RH  086%=      5-min Rain = 0
KHA3 241420Z 15013KT 24/22 A2994 RMK A01 T02410216  RH  086%=      5-min Rain = 0
KHA3 241421Z 15012G17KT 24/22 A2994 RMK A01 T02410216  RH  085%=      5-min Rain = 0
KHA3 241422Z 15011KT 24/22 A2994 RMK A01 T02420218  RH  086%=      5-min Rain = 0
KHA3 241423Z 16013KT 24/22 A2994 RMK A01 T02430217  RH  085%=      5-min Rain = 0
KHA3 241424Z 15013KT 24/22 A2994 RMK A01 T02430217  RH  085%=      5-min Rain = 0
KHA3 241425Z 15013KT 24/22 A2994 RMK A01 T02440217  RH  085%=      5-min Rain = 0
KHA3 241426Z 15014KT 24/22 A2994 RMK A01 T02440218  RH  085%=      5-min Rain = 0
KHA3 241427Z 16016KT 24/22 A2994 RMK A01 T02440215  RH  084%=      5-min Rain = 0
KHA3 241428Z 16015KT 24/22 A2994 RMK A01 T02440215  RH  084%=      5-min Rain = 0
KHA3 241429Z 15014KT 24/22 A2994 RMK A01 T02440216  RH  085%=      5-min Rain = 0
KHA3 241430Z 15014KT 24/22 A2994 RMK A01 T02430216  RH  085%=      5-min Rain = 0
KHA3 241431Z 14014KT 24/22 A2994 RMK A01 T02430216  RH  084%=      5-min Rain = 0
KHA3 241432Z 16015KT 24/22 A2994 RMK A01 T02430216  RH  084%=      5-min Rain = 0
KHA3 241433Z 15013KT 24/22 A2994 RMK A01 T02430216  RH  085%=      5-min Rain = 0
KHA3 241434Z 15014KT 24/22 A2994 RMK A01 T02440215  RH  084%=      5-min Rain = 0
KHA3 241435Z 15016KT 24/22 A2994 RMK A01 T02440215  RH  084%=      5-min Rain = 0
KHA3 241436Z 15016KT 24/21 A2994 RMK A01 T02440214  RH  083%=      5-min Rain = 0
KHA3 241437Z 16017KT 24/21 A2994 RMK A01 T02430214  RH  084%=      5-min Rain = 0
KHA3 241438Z 16017KT 24/21 A2994 RMK A01 T02430214  RH  084%=      5-min Rain = 0
KHA3 241439Z 15014KT 24/21 A2994 RMK A01 T02430214  RH  084%=      5-min Rain = 0
KHA3 241440Z 15014KT 24/21 A2994 RMK A01 T02430214  RH  084%=      5-min Rain = 0
KHA3 241441Z 16017KT 24/21 A2994 RMK A01 T02440214  RH  084%=      5-min Rain = 0
KHA3 241442Z 15018KT 24/21 A2994 RMK A01 T02440213  RH  083%=      5-min Rain = 0
KHA3 241443Z 16017KT 24/21 A2994 RMK A01 T02440214  RH  083%=      5-min Rain = 0
KHA3 241444Z 15016KT 24/21 A2994 RMK A01 T02440213  RH  083%=      5-min Rain = 0
KHA3 241445Z 15013KT 24/21 A2994 RMK A01 T02430214  RH  084%=      5-min Rain = 0
KHA3 241446Z 15016KT 24/21 A2994 RMK A01 T02440214  RH  084%=      5-min Rain = 0
KHA3 241447Z 15014KT 24/21 A2994 RMK A01 T02440214  RH  083%=      5-min Rain = 0
KHA3 241448Z 15016KT 25/22 A2994 RMK A01 T02450215  RH  083%=      5-min Rain = 0
KHA3 241449Z 15017KT 25/21 A2994 RMK A01 T02450213  RH  083%=      5-min Rain = 0
KHA3 241450Z 16016KT 25/21 A2994 RMK A01 T02450214  RH  083%=      5-min Rain = 0
KHA3 241451Z 15015G21KT 25/21 A2994 RMK A01 T02450214  RH  083%=      5-min Rain = 0
KHA3 241452Z 15017G22KT 25/21 A2994 RMK A01 T02450213  RH  083%=      5-min Rain = 0
KHA3 241453Z 16019KT 24/21 A2994 RMK A01 T02440212  RH  082%=      5-min Rain = 0
KHA3 241454Z 15016KT 24/21 A2994 RMK A01 T02440212  RH  082%=      5-min Rain = 0
KHA3 241455Z 15014KT 24/21 A2994 RMK A01 T02440213  RH  083%=      5-min Rain = 0
KHA3 241456Z 14014KT 24/21 A2994 RMK A01 T02440214  RH  083%=      5-min Rain = 0
KHA3 241457Z 15013KT 25/21 A2994 RMK A01 T02450214  RH  083%=      5-min Rain = 0
KHA3 241458Z 16013KT 25/22 A2994 RMK A01 T02450215  RH  083%=      5-min Rain = 0
KHA3 241459Z 16015KT 25/21 A2994 RMK A01 T02460214  RH  083%=      5-min Rain = 0
KHA3 241500Z 15014KT 25/21 A2994 RMK A01 T02460213  RH  082%=      5-min Rain = 0
KHA3 241501Z 15016KT 25/21 A2994 RMK A01 T02460213  RH  082%=      5-min Rain = 0
KHA3 241502Z 16015KT 25/21 A2994 RMK A01 T02460214  RH  082%=      5-min Rain = 0
KHA3 241503Z 15014KT 25/22 A2994 RMK A01 T02470215  RH  083%=      5-min Rain = 0
KHA3 241504Z 15013KT 25/21 A2994 RMK A01 T02470214  RH  082%=      5-min Rain = 0
KHA3 241505Z 16013KT 25/22 A2994 RMK A01 T02480215  RH  082%=      5-min Rain = 0
KHA3 241506Z 16014KT 25/22 A2994 RMK A01 T02480215  RH  082%=      5-min Rain = 0
KHA3 241507Z 15016KT 25/22 A2994 RMK A01 T02490215  RH  081%=      5-min Rain = 0
KHA3 241508Z 16017KT 25/21 A2994 RMK A01 T02500214  RH  081%=      5-min Rain = 0
KHA3 241509Z 16016KT 25/21 A2994 RMK A01 T02490213  RH  080%=      5-min Rain = 0
KHA3 241510Z 16016KT 25/21 A2994 RMK A01 T02490214  RH  081%=      5-min Rain = 0
KHA3 241511Z 16015KT 25/21 A2994 RMK A01 T02490214  RH  081%=      5-min Rain = 0
KHA3 241512Z 15013KT 25/22 A2994 RMK A01 T02500215  RH  081%=      5-min Rain = 0
KHA3 241513Z 15013KT 25/22 A2994 RMK A01 T02500216  RH  081%=      5-min Rain = 0
KHA3 241514Z 16017KT 25/21 A2994 RMK A01 T02510214  RH  080%=      5-min Rain = 0
KHA3 241515Z 15013G18KT 25/22 A2994 RMK A01 T02510216  RH  081%=      5-min Rain = 0
KHA3 241516Z 16015KT 25/22 A2994 RMK A01 T02530216  RH  080%=      5-min Rain = 0
KHA3 241517Z 16013KT 25/22 A2994 RMK A01 T02540217  RH  080%=      5-min Rain = 0
KHA3 241518Z 14017KT 25/22 A2994 RMK A01 T02540215  RH  079%=      5-min Rain = 0
KHA3 241519Z 15015KT 25/21 A2994 RMK A01 T02530214  RH  079%=      5-min Rain = 0
KHA3 241520Z 16016KT 25/22 A2994 RMK A01 T02530215  RH  080%=      5-min Rain = 0
KHA3 241521Z 15015KT 25/21 A2994 RMK A01 T02520214  RH  079%=      5-min Rain = 0
KHA3 241522Z 16016KT 25/21 A2994 RMK A01 T02530214  RH  079%=      5-min Rain = 0
KHA3 241523Z 16018KT 25/21 A2994 RMK A01 T02530214  RH  079%=      5-min Rain = 0
KHA3 241524Z 17015G21KT 25/22 A2994 RMK A01 T02530216  RH  080%=      5-min Rain = 0
KHA3 241525Z 16014KT 25/22 A2994 RMK A01 T02530216  RH  080%=      5-min Rain = 0
KHA3 241526Z 15016KT 25/22 A2994 RMK A01 T02540217  RH  080%=      5-min Rain = 0
KHA3 241527Z 15017KT 26/22 A2994 RMK A01 T02550215  RH  079%=      5-min Rain = 0
KHA3 241528Z 16016KT 26/22 A2994 RMK A01 T02550215  RH  078%=      5-min Rain = 0
KHA3 241529Z 16014KT 25/22 A2994 RMK A01 T02540216  RH  079%=      5-min Rain = 0
KHA3 241530Z 16014KT 26/22 A2994 RMK A01 T02550216  RH  079%=      5-min Rain = 0
KHA3 241531Z 16014KT 26/22 A2994 RMK A01 T02560217  RH  079%=      5-min Rain = 0
KHA3 241532Z 15015G21KT 26/22 A2994 RMK A01 T02570217  RH  078%=      5-min Rain = 0
KHA3 241533Z 16019KT 26/22 A2994 RMK A01 T02580215  RH  077%=      5-min Rain = 0
KHA3 241534Z 16016KT 26/21 A2994 RMK A01 T02570214  RH  077%=      5-min Rain = 0
KHA3 241535Z 17015G22KT 26/22 A2994 RMK A01 T02570216  RH  078%=      5-min Rain = 0
KHA3 241536Z 16015KT 26/22 A2994 RMK A01 T02580216  RH  078%=      5-min Rain = 0
KHA3 241537Z 16017KT 26/22 A2994 RMK A01 T02590215  RH  077%=      5-min Rain = 0
KHA3 241538Z 16019KT 26/21 A2994 RMK A01 T02590214  RH  076%=      5-min Rain = 0
KHA3 241539Z 16015KT 26/21 A2994 RMK A01 T02580214  RH  077%=      5-min Rain = 0
KHA3 241540Z 16014KT 26/22 A2994 RMK A01 T02580217  RH  078%=      5-min Rain = 0
KHA3 241541Z 16013KT 26/22 A2994 RMK A01 T02590217  RH  078%=      5-min Rain = 0
KHA3 241542Z 15017KT 26/22 A2994 RMK A01 T02590215  RH  077%=      5-min Rain = 0
KHA3 241543Z 16016G21KT 26/22 A2994 RMK A01 T02610216  RH  076%=      5-min Rain = 0
KHA3 241544Z 16017KT 26/22 A2994 RMK A01 T02620215  RH  075%=      5-min Rain = 0
KHA3 241545Z 16020KT 26/22 A2994 RMK A01 T02620215  RH  075%=      5-min Rain = 0
KHA3 241546Z 16017KT 26/21 A2994 RMK A01 T02630214  RH  074%=      5-min Rain = 0
KHA3 241547Z 16018KT 26/22 A2994 RMK A01 T02630215  RH  075%=      5-min Rain = 0
KHA3 241548Z 16017KT 27/22 A2994 RMK A01 T02650215  RH  074%=      5-min Rain = 0
KHA3 241549Z 15017KT 27/22 A2994 RMK A01 T02660217  RH  074%=      5-min Rain = 0
KHA3 241550Z 15017KT 27/22 A2994 RMK A01 T02660215  RH  073%=      5-min Rain = 0
KHA3 241551Z 16018KT 27/22 A2994 RMK A01 T02660215  RH  074%=      5-min Rain = 0
KHA3 241552Z 16017KT 27/22 A2994 RMK A01 T02650215  RH  074%=      5-min Rain = 0
KHA3 241553Z 15019KT 26/21 A2994 RMK A01 T02640214  RH  074%=      5-min Rain = 0
KHA3 241554Z 17017KT 26/21 A2994 RMK A01 T02640214  RH  074%=      5-min Rain = 0
KHA3 241555Z 17018KT 26/21 A2994 RMK A01 T02640214  RH  074%=      5-min Rain = 0
KHA3 241556Z 16019G24KT 26/22 A2994 RMK A01 T02640215  RH  074%=      5-min Rain = 0
KHA3 241557Z 16020G25KT 27/21 A2994 RMK A01 T02660214  RH  073%=      5-min Rain = 0
KHA3 241558Z 16016KT 27/22 A2994 RMK A01 T02650215  RH  074%=      5-min Rain = 0
KHA3 241559Z 17015KT 27/22 A2994 RMK A01 T02660217  RH  074%=      5-min Rain = 0
KHA3 241600Z 16018G24KT 27/22 A2994 RMK A01 T02660215  RH  074%=      5-min Rain = 0
KHA3 241601Z 17019KT 27/21 A2994 RMK A01 T02680214  RH  073%=      5-min Rain = 0
KHA3 241602Z 17016KT 27/22 A2994 RMK A01 T02670216  RH  073%=      5-min Rain = 0
KHA3 241603Z 17018G24KT 27/22 A2994 RMK A01 T02680217  RH  074%=      5-min Rain = 0
KHA3 241604Z 16022KT 27/22 A2994 RMK A01 T02700215  RH  072%=      5-min Rain = 0
KHA3 241605Z 17019KT 27/21 A2994 RMK A01 T02690213  RH  072%=      5-min Rain = 0
KHA3 241606Z 15018KT 27/22 A2994 RMK A01 T02680215  RH  073%=      5-min Rain = 0
KHA3 241607Z 16017KT 27/22 A2994 RMK A01 T02680216  RH  073%=      5-min Rain = 0
KHA3 241608Z 16019G25KT 27/22 A2994 RMK A01 T02690215  RH  072%=      5-min Rain = 0
KHA3 241609Z 16020G25KT 27/22 A2994 RMK A01 T02690215  RH  073%=      5-min Rain = 0
KHA3 241610Z 16020KT 27/21 A2994 RMK A01 T02670214  RH  073%=      5-min Rain = 0
KHA3 241611Z 16019KT 27/21 A2994 RMK A01 T02650213  RH  073%=      5-min Rain = 0
KHA3 241612Z 16018KT 27/22 A2994 RMK A01 T02650215  RH  074%=      5-min Rain = 0
KHA3 241613Z 17017KT 27/22 A2994 RMK A01 T02670215  RH  073%=      5-min Rain = 0
KHA3 241614Z 16019KT 27/22 A2994 RMK A01 T02680215  RH  073%=      5-min Rain = 0
KHA3 241615Z 17014KT 27/22 A2994 RMK A01 T02680216  RH  073%=      5-min Rain = 0
KHA3 241616Z 17016G21KT 27/22 A2994 RMK A01 T02720221  RH  074%=      5-min Rain = 0
KHA3 241617Z 17018KT 27/22 A2994 RMK A01 T02740217  RH  071%=      5-min Rain = 0
KHA3 241618Z 16017KT 27/22 A2994 RMK A01 T02720215  RH  071%=      5-min Rain = 0
KHA3 241619Z 17018KT 27/22 A2994 RMK A01 T02720216  RH  072%=      5-min Rain = 0
KHA3 241620Z 16021KT 27/21 A2994 RMK A01 T02710214  RH  071%=      5-min Rain = 0
KHA3 241621Z 16017KT 27/21 A2994 RMK A01 T02690214  RH  072%=      5-min Rain = 0
KHA3 241622Z 16016KT 27/22 A2994 RMK A01 T02700218  RH  073%=      5-min Rain = 0
KHA3 241623Z 17020KT 27/22 A2994 RMK A01 T02720217  RH  072%=      5-min Rain = 0
KHA3 241624Z 16020KT 27/22 A2994 RMK A01 T02730216  RH  071%=      5-min Rain = 0
KHA3 241625Z 16021KT 27/21 A2994 RMK A01 T02720214  RH  071%=      5-min Rain = 0
KHA3 241626Z 16021KT 27/22 A2994 RMK A01 T02700215  RH  072%=      5-min Rain = 0
KHA3 241627Z 17023KT 27/21 A2994 RMK A01 T02680212  RH  072%=      5-min Rain = 0
KHA3 241628Z 16019KT 27/21 A2994 RMK A01 T02680214  RH  073%=      5-min Rain = 0
KHA3 241629Z 17019KT 27/21 A2994 RMK A01 T02680214  RH  073%=      5-min Rain = 0
KHA3 241630Z 16019KT 27/21 A2994 RMK A01 T02670214  RH  073%=      5-min Rain = 0
KHA3 241631Z 17017KT 27/22 A2994 RMK A01 T02670215  RH  073%=      5-min Rain = 0
KHA3 241632Z 17020G25KT 27/22 A2994 RMK A01 T02670216  RH  073%=      5-min Rain = 0
KHA3 241633Z 17022KT 27/21 A2994 RMK A01 T02690214  RH  072%=      5-min Rain = 0
KHA3 241634Z 16020KT 27/22 A2994 RMK A01 T02690215  RH  072%=      5-min Rain = 0
KHA3 241635Z 16020KT 27/21 A2994 RMK A01 T02700214  RH  072%=      5-min Rain = 0
KHA3 241636Z 16020G25KT 27/22 A2994 RMK A01 T02690215  RH  072%=      5-min Rain = 0
KHA3 241637Z 16018KT 27/22 A2994 RMK A01 T02700217  RH  073%=      5-min Rain = 0
KHA3 241638Z 16018KT 27/22 A2994 RMK A01 T02710216  RH  072%=      5-min Rain = 0
KHA3 241639Z 16020KT 27/22 A2994 RMK A01 T02700217  RH  073%=      5-min Rain = 0
KHA3 241640Z 16019KT 27/22 A2994 RMK A01 T02680215  RH  072%=      5-min Rain = 0
KHA3 241641Z 16016KT 27/22 A2994 RMK A01 T02670216  RH  073%=      5-min Rain = 0
KHA3 241642Z 17018KT 27/22 A2994 RMK A01 T02680217  RH  073%=      5-min Rain = 0
KHA3 241643Z 17018KT 27/22 A2994 RMK A01 T02700218  RH  073%=      5-min Rain = 0
KHA3 241644Z 18015KT 27/22 A2994 RMK A01 T02700218  RH  073%=      5-min Rain = 0
KHA3 241645Z 17013KT 27/22 A2994 RMK A01 T02720221  RH  073%=      5-min Rain = 0
KHA3 241646Z 16016KT 28/22 A2994 RMK A01 T02750222  RH  073%=      5-min Rain = 0
KHA3 241647Z 16019G24KT 28/22 A2994 RMK A01 T02750218  RH  071%=      5-min Rain = 0
KHA3 241648Z 16019KT 27/22 A2994 RMK A01 T02700215  RH  071%=      5-min Rain = 0
KHA3 241649Z 16016KT 27/21 A2994 RMK A01 T02670214  RH  073%=      5-min Rain = 0
KHA3 241650Z 16021KT 27/22 A2994 RMK A01 T02650215  RH  074%=      5-min Rain = 0
KHA3 241651Z 16019KT 27/21 A2994 RMK A01 T02650213  RH  073%=      5-min Rain = 0
KHA3 241652Z 17017KT 27/22 A2994 RMK A01 T02650216  RH  074%=      5-min Rain = 0
KHA3 241653Z 16013G18KT 27/22 A2994 RMK A01 T02670218  RH  074%=      5-min Rain = 0
KHA3 241654Z 16016KT 27/22 A2994 RMK A01 T02700218  RH  073%=      5-min Rain = 0
KHA3 241655Z 16020KT 27/22 A2994 RMK A01 T02710217  RH  072%=      5-min Rain = 0
KHA3 241656Z 16018KT 27/22 A2994 RMK A01 T02710216  RH  072%=      5-min Rain = 0
KHA3 241657Z 16015KT 27/22 A2994 RMK A01 T02700218  RH  073%=      5-min Rain = 0
KHA3 241658Z 17017KT 27/22 A2994 RMK A01 T02710218  RH  073%=      5-min Rain = 0
KHA3 241659Z 16015KT 27/22 A2994 RMK A01 T02700219  RH  073%=      5-min Rain = 0
KHA3 241700Z 16018KT 27/22 A2994 RMK A01 T02700217  RH  073%=      5-min Rain = 0
KHA3 241701Z 16017KT 27/22 A2994 RMK A01 T02710217  RH  072%=      5-min Rain = 0
KHA3 241702Z 16018KT 27/22 A2994 RMK A01 T02710215  RH  072%=      5-min Rain = 0
KHA3 241703Z 17019KT 27/22 A2994 RMK A01 T02700216  RH  072%=      5-min Rain = 0
KHA3 241704Z 17019KT 27/21 A2994 RMK A01 T02690214  RH  072%=      5-min Rain = 0
KHA3 241705Z 16015KT 27/22 A2994 RMK A01 T02690217  RH  073%=      5-min Rain = 0
KHA3 241706Z 16019KT 27/22 A2994 RMK A01 T02720217  RH  072%=      5-min Rain = 0
KHA3 241707Z 16016KT 27/22 A2994 RMK A01 T02710217  RH  072%=      5-min Rain = 0
KHA3 241708Z 17019KT 27/22 A2994 RMK A01 T02700216  RH  072%=      5-min Rain = 0
KHA3 241709Z 16017KT 27/21 A2994 RMK A01 T02670213  RH  072%=      5-min Rain = 0
KHA3 241710Z 17016KT 27/22 A2994 RMK A01 T02660215  RH  073%=      5-min Rain = 0
KHA3 241711Z 17014KT 27/22 A2995 RMK A01 T02660216  RH  074%=      5-min Rain = 0
KHA3 241712Z 17014KT 27/22 A2995 RMK A01 T02670216  RH  074%=      5-min Rain = 0
KHA3 241713Z 17017KT 27/21 A2995 RMK A01 T02670214  RH  073%=      5-min Rain = 0
KHA3 241714Z 18017KT 27/21 A2994 RMK A01 T02660214  RH  073%=      5-min Rain = 0
KHA3 241715Z 17017KT 27/21 A2994 RMK A01 T02650213  RH  073%=      5-min Rain = 0
KHA3 241716Z 17015KT 27/22 A2994 RMK A01 T02650215  RH  074%=      5-min Rain = 0
KHA3 241717Z 17017KT 27/21 A2994 RMK A01 T02660214  RH  073%=      5-min Rain = 0
KHA3 241718Z 17018G23KT 27/21 A2994 RMK A01 T02660214  RH  073%=      5-min Rain = 0
KHA3 241719Z 16020KT 27/21 A2994 RMK A01 T02650213  RH  073%=      5-min Rain = 0
KHA3 241720Z 16017KT 26/21 A2994 RMK A01 T02640213  RH  073%=      5-min Rain = 0
KHA3 241721Z 17017G22KT 26/21 A2994 RMK A01 T02640214  RH  074%=      5-min Rain = 0
KHA3 241722Z 16018KT 26/21 A2994 RMK A01 T02640212  RH  073%=      5-min Rain = 0
KHA3 241723Z 17018KT 26/21 A2994 RMK A01 T02630212  RH  074%=      5-min Rain = 0
KHA3 241724Z 16017G22KT 26/21 A2994 RMK A01 T02620213  RH  074%=      5-min Rain = 0
KHA3 241725Z 17020KT 26/21 A2994 RMK A01 T02620211  RH  074%=      5-min Rain = 0
KHA3 241726Z 17019KT 26/21 A2994 RMK A01 T02610210  RH  074%=      5-min Rain = 0
KHA3 241727Z 17020KT 26/21 A2994 RMK A01 T02610211  RH  074%=      5-min Rain = 0
KHA3 241728Z 17019KT 26/21 A2995 RMK A01 T02600211  RH  074%=      5-min Rain = 0
KHA3 241729Z 17018KT 26/21 A2995 RMK A01 T02600211  RH  074%=      5-min Rain = 0
KHA3 241730Z 17019KT 26/21 A2995 RMK A01 T02600211  RH  074%=      5-min Rain = 0
KHA3 241731Z 17018KT 26/21 A2994 RMK A01 T02600210  RH  074%=      5-min Rain = 0
KHA3 241732Z 17014KT 26/21 A2994 RMK A01 T02600212  RH  074%=      5-min Rain = 0
KHA3 241733Z 17016KT 26/21 A2994 RMK A01 T02610212  RH  074%=      5-min Rain = 0
KHA3 241734Z 17016KT 26/21 A2994 RMK A01 T02620211  RH  074%=      5-min Rain = 0
KHA3 241735Z 17016KT 26/21 A2994 RMK A01 T02620213  RH  074%=      5-min Rain = 0
KHA3 241736Z 17020G25KT 26/21 A2994 RMK A01 T02630211  RH  073%=      5-min Rain = 0
KHA3 241737Z 17018G23KT 26/21 A2994 RMK A01 T02640212  RH  073%=      5-min Rain = 0
KHA3 241738Z 17016KT 27/21 A2994 RMK A01 T02650214  RH  073%=      5-min Rain = 0
KHA3 241739Z 17015KT 27/22 A2994 RMK A01 T02680215  RH  073%=      5-min Rain = 0
KHA3 241740Z 17015KT 27/22 A2994 RMK A01 T02700217  RH  073%=      5-min Rain = 0
KHA3 241741Z 17017G23KT 27/22 A2994 RMK A01 T02720217  RH  072%=      5-min Rain = 0
KHA3 241742Z 16018KT 27/22 A2994 RMK A01 T02730216  RH  071%=      5-min Rain = 0
KHA3 241743Z 17018KT 27/22 A2994 RMK A01 T02740216  RH  071%=      5-min Rain = 0
KHA3 241744Z 16018KT 27/22 A2994 RMK A01 T02740215  RH  070%=      5-min Rain = 0
KHA3 241745Z 17019KT 28/22 A2994 RMK A01 T02750215  RH  070%=      5-min Rain = 0
KHA3 241746Z 16018G24KT 28/22 A2994 RMK A01 T02750218  RH  071%=      5-min Rain = 0
KHA3 241747Z 17018G25KT 28/22 A2994 RMK A01 T02760215  RH  069%=      5-min Rain = 0
KHA3 241748Z 16016KT 28/22 A2994 RMK A01 T02750217  RH  070%=      5-min Rain = 0
KHA3 241749Z 17019KT 28/22 A2994 RMK A01 T02750216  RH  070%=      5-min Rain = 0
KHA3 241750Z 16017KT 27/22 A2994 RMK A01 T02740216  RH  071%=      5-min Rain = 0
KHA3 241751Z 16020G25KT 27/21 A2994 RMK A01 T02730214  RH  070%=      5-min Rain = 0
KHA3 241752Z 16018G23KT 27/21 A2994 RMK A01 T02700213  RH  071%=      5-min Rain = 0
KHA3 241753Z 17018G23KT 27/21 A2994 RMK A01 T02690213  RH  071%=      5-min Rain = 0
KHA3 241754Z 17017KT 27/21 A2994 RMK A01 T02680214  RH  072%=      5-min Rain = 0
KHA3 241755Z 17017KT 27/21 A2994 RMK A01 T02670214  RH  072%=      5-min Rain = 0
KHA3 241756Z 18019KT 27/21 A2994 RMK A01 T02670213  RH  072%=      5-min Rain = 0
KHA3 241757Z 17019KT 27/21 A2994 RMK A01 T02660213  RH  072%=      5-min Rain = 0
KHA3 241758Z 17017G23KT 27/21 A2994 RMK A01 T02660212  RH  072%=      5-min Rain = 0
KHA3 241759Z 17020KT 27/21 A2994 RMK A01 T02650212  RH  073%=      5-min Rain = 0
KHA3 241800Z 17017G22KT 27/21 A2994 RMK A01 T02650212  RH  073%=      5-min Rain = 0
KHA3 241801Z 17019G24KT 26/21 A2994 RMK A01 T02640212  RH  073%=      5-min Rain = 0
KHA3 241802Z 18019KT 26/21 A2994 RMK A01 T02640211  RH  073%=      5-min Rain = 0
KHA3 241803Z 18018KT 26/21 A2994 RMK A01 T02630211  RH  073%=      5-min Rain = 0
KHA3 241804Z 18018G23KT 26/21 A2994 RMK A01 T02630212  RH  073%=      5-min Rain = 0
KHA3 241805Z 18018KT 26/21 A2994 RMK A01 T02630211  RH  073%=      5-min Rain = 0
KHA3 241806Z 18017KT 26/21 A2994 RMK A01 T02630212  RH  074%=      5-min Rain = 0
KHA3 241807Z 18017KT 26/21 A2994 RMK A01 T02630212  RH  073%=      5-min Rain = 0
KHA3 241808Z 17014KT 26/21 A2994 RMK A01 T02630212  RH  073%=      5-min Rain = 0
KHA3 241809Z 17014KT 26/21 A2994 RMK A01 T02640214  RH  074%=      5-min Rain = 0
KHA3 241810Z 16014KT 26/21 A2994 RMK A01 T02630214  RH  074%=      5-min Rain = 0
KHA3 241811Z 17015G23KT 26/22 A2994 RMK A01 T02640215  RH  075%=      5-min Rain = 0
KHA3 241812Z 17020KT 26/21 A2994 RMK A01 T02630212  RH  074%=      5-min Rain = 0
KHA3 241813Z 18020KT 26/21 A2994 RMK A01 T02620210  RH  073%=      5-min Rain = 0
KHA3 241814Z 18018KT 26/21 A2994 RMK A01 T02610210  RH  073%=      5-min Rain = 0
KHA3 241815Z 17016KT 26/21 A2994 RMK A01 T02610211  RH  074%=      5-min Rain = 0
KHA3 241816Z 18016KT 26/21 A2994 RMK A01 T02600211  RH  074%=      5-min Rain = 0
KHA3 241817Z 17017KT 26/21 A2994 RMK A01 T02600212  RH  075%=      5-min Rain = 0
KHA3 241818Z 17019KT 26/21 A2993 RMK A01 T02610211  RH  074%=      5-min Rain = 0
KHA3 241819Z 17019G25KT 26/21 A2993 RMK A01 T02630211  RH  073%=      5-min Rain = 0
KHA3 241820Z 17019KT 26/21 A2993 RMK A01 T02640212  RH  073%=      5-min Rain = 0
KHA3 241821Z 16022KT 27/21 A2993 RMK A01 T02650212  RH  073%=      5-min Rain = 0
KHA3 241822Z 17018KT 27/21 A2993 RMK A01 T02660212  RH  072%=      5-min Rain = 0
KHA3 241823Z 17021KT 27/21 A2993 RMK A01 T02680214  RH  072%=      5-min Rain = 0
KHA3 241824Z 17019KT 27/21 A2993 RMK A01 T02700214  RH  072%=      5-min Rain = 0
KHA3 241825Z 17017KT 27/22 A2993 RMK A01 T02710215  RH  071%=      5-min Rain = 0
KHA3 241826Z 17021KT 27/22 A2993 RMK A01 T02720215  RH  071%=      5-min Rain = 0
KHA3 241827Z 18017KT 27/21 A2993 RMK A01 T02720214  RH  071%=      5-min Rain = 0
KHA3 241828Z 17015KT 27/22 A2993 RMK A01 T02720217  RH  072%=      5-min Rain = 0
KHA3 241829Z 17017KT 27/22 A2993 RMK A01 T02740216  RH  071%=      5-min Rain = 0
KHA3 241830Z 16015KT 27/22 A2993 RMK A01 T02740218  RH  071%=      5-min Rain = 0
KHA3 241831Z 17015KT 28/22 A2993 RMK A01 T02750218  RH  071%=      5-min Rain = 0
KHA3 241832Z 16015KT 28/22 A2993 RMK A01 T02750217  RH  071%=      5-min Rain = 0
KHA3 241833Z 15017KT 28/22 A2993 RMK A01 T02750217  RH  070%=      5-min Rain = 0
KHA3 241834Z 17016KT 27/22 A2993 RMK A01 T02740216  RH  071%=      5-min Rain = 0
KHA3 241835Z 17016KT 27/22 A2993 RMK A01 T02740217  RH  071%=      5-min Rain = 0
KHA3 241836Z 16016KT 27/22 A2993 RMK A01 T02740217  RH  071%=      5-min Rain = 0
KHA3 241837Z 16016KT 27/22 A2993 RMK A01 T02730217  RH  071%=      5-min Rain = 0
KHA3 241838Z 16014KT 27/22 A2993 RMK A01 T02740219  RH  072%=      5-min Rain = 0
KHA3 241839Z 17013KT 28/22 A2992 RMK A01 T02750218  RH  071%=      5-min Rain = 0
KHA3 241840Z 16013KT 28/22 A2993 RMK A01 T02760219  RH  071%=      5-min Rain = 0
KHA3 241841Z 15020G25KT 28/22 A2993 RMK A01 T02770218  RH  070%=      5-min Rain = 0
KHA3 241842Z 17020KT 28/22 A2992 RMK A01 T02760215  RH  070%=      5-min Rain = 0
KHA3 241843Z 16018KT 27/22 A2992 RMK A01 T02740215  RH  070%=      5-min Rain = 0
KHA3 241844Z 16018KT 27/22 A2992 RMK A01 T02740216  RH  070%=      5-min Rain = 0
KHA3 241845Z 17018KT 27/22 A2992 RMK A01 T02740215  RH  070%=      5-min Rain = 0
KHA3 241846Z 16015KT 27/22 A2992 RMK A01 T02740216  RH  071%=      5-min Rain = 0
KHA3 241847Z 16016KT 27/22 A2992 RMK A01 T02740216  RH  071%=      5-min Rain = 0
KHA3 241848Z 16016KT 28/22 A2992 RMK A01 T02750219  RH  071%=      5-min Rain = 0
KHA3 241849Z 16018KT 28/22 A2992 RMK A01 T02760216  RH  070%=      5-min Rain = 0
KHA3 241850Z 15020KT 28/22 A2992 RMK A01 T02760215  RH  069%=      5-min Rain = 0
KHA3 241851Z 16018KT 28/21 A2992 RMK A01 T02750214  RH  069%=      5-min Rain = 0
KHA3 241852Z 16016KT 28/22 A2992 RMK A01 T02750218  RH  071%=      5-min Rain = 0
KHA3 241853Z 16016KT 28/22 A2992 RMK A01 T02760216  RH  070%=      5-min Rain = 0
KHA3 241854Z 15016KT 28/22 A2992 RMK A01 T02760217  RH  070%=      5-min Rain = 0
KHA3 241855Z 16019KT 28/22 A2992 RMK A01 T02760217  RH  070%=      5-min Rain = 0
KHA3 241856Z 17017KT 28/22 A2992 RMK A01 T02760216  RH  070%=      5-min Rain = 0
KHA3 241857Z 16016KT 28/22 A2992 RMK A01 T02750216  RH  070%=      5-min Rain = 0
KHA3 241858Z 15013KT 28/22 A2992 RMK A01 T02750219  RH  072%=      5-min Rain = 0
KHA3 241859Z 17015G20KT 28/22 A2992 RMK A01 T02770219  RH  071%=      5-min Rain = 0
KHA3 241900Z 17016G21KT 28/22 A2992 RMK A01 T02770219  RH  071%=      5-min Rain = 0
KHA3 241901Z 17020KT 28/22 A2992 RMK A01 T02770215  RH  069%=      5-min Rain = 0
KHA3 241902Z 17018KT 28/22 A2992 RMK A01 T02760215  RH  069%=      5-min Rain = 0
KHA3 241903Z 16015KT 28/22 A2992 RMK A01 T02760218  RH  071%=      5-min Rain = 0
KHA3 241904Z 16018KT 28/22 A2991 RMK A01 T02760217  RH  070%=      5-min Rain = 0
KHA3 241905Z 16018KT 28/22 A2991 RMK A01 T02750215  RH  070%=      5-min Rain = 0
KHA3 241906Z 15017KT 27/22 A2991 RMK A01 T02740215  RH  070%=      5-min Rain = 0
KHA3 241907Z 16015KT 27/22 A2991 RMK A01 T02740216  RH  071%=      5-min Rain = 0
KHA3 241908Z 15015G21KT 28/22 A2991 RMK A01 T02750218  RH  071%=      5-min Rain = 0
KHA3 241909Z 15017KT 28/22 A2992 RMK A01 T02760216  RH  070%=      5-min Rain = 0
KHA3 241910Z 16019KT 28/22 A2992 RMK A01 T02760215  RH  070%=      5-min Rain = 0
KHA3 241911Z 17019KT 28/21 A2992 RMK A01 T02760214  RH  069%=      5-min Rain = 0
KHA3 241912Z 17018KT 28/22 A2992 RMK A01 T02750216  RH  070%=      5-min Rain = 0
KHA3 241913Z 17019KT 28/21 A2991 RMK A01 T02750214  RH  070%=      5-min Rain = 0
KHA3 241914Z 16019KT 27/22 A2992 RMK A01 T02740216  RH  070%=      5-min Rain = 0
KHA3 241915Z 16020KT 27/21 A2992 RMK A01 T02740214  RH  070%=      5-min Rain = 0
KHA3 241916Z 16017KT 27/22 A2992 RMK A01 T02740215  RH  070%=      5-min Rain = 0
KHA3 241917Z 17017KT 27/22 A2992 RMK A01 T02740215  RH  070%=      5-min Rain = 0
KHA3 241918Z 16017KT 27/21 A2991 RMK A01 T02740214  RH  070%=      5-min Rain = 0
KHA3 241919Z 16019KT 27/22 A2992 RMK A01 T02740215  RH  070%=      5-min Rain = 0
KHA3 241920Z 17016KT 27/22 A2992 RMK A01 T02740216  RH  070%=      5-min Rain = 0
KHA3 241921Z 16019KT 27/22 A2992 RMK A01 T02740215  RH  070%=      5-min Rain = 0
KHA3 241922Z 16018KT 27/21 A2992 RMK A01 T02740214  RH  070%=      5-min Rain = 0
KHA3 241923Z 17014KT 27/22 A2992 RMK A01 T02730217  RH  071%=      5-min Rain = 0
KHA3 241924Z 17015KT 28/22 A2992 RMK A01 T02750218  RH  071%=      5-min Rain = 0
KHA3 241925Z 17016KT 28/22 A2992 RMK A01 T02750216  RH  070%=      5-min Rain = 0
KHA3 241926Z 18017KT 28/22 A2992 RMK A01 T02750216  RH  070%=      5-min Rain = 0
KHA3 241927Z 17014KT 27/22 A2992 RMK A01 T02740217  RH  071%=      5-min Rain = 0
KHA3 241928Z 17014G19KT 27/22 A2992 RMK A01 T02740217  RH  071%=      5-min Rain = 0
KHA3 241929Z 17016G21KT 27/22 A2992 RMK A01 T02740217  RH  071%=      5-min Rain = 0
KHA3 241930Z 18016KT 27/22 A2992 RMK A01 T02740215  RH  070%=      5-min Rain = 0
KHA3 241931Z 17016G21KT 27/22 A2992 RMK A01 T02730215  RH  071%=      5-min Rain = 0
KHA3 241932Z 17018KT 27/21 A2992 RMK A01 T02730214  RH  070%=      5-min Rain = 0
KHA3 241933Z 16017KT 27/22 A2992 RMK A01 T02730215  RH  071%=      5-min Rain = 0
KHA3 241934Z 16016KT 28/22 A2992 RMK A01 T02750217  RH  071%=      5-min Rain = 0
KHA3 241935Z 16017KT 28/22 A2992 RMK A01 T02780217  RH  069%=      5-min Rain = 0
KHA3 241936Z 16016G21KT 28/22 A2992 RMK A01 T02800218  RH  069%=      5-min Rain = 0
KHA3 241937Z 16015KT 28/22 A2992 RMK A01 T02840221  RH  069%=      5-min Rain = 0
KHA3 241938Z 16016KT 29/22 A2992 RMK A01 T02860220  RH  067%=      5-min Rain = 0
KHA3 241939Z 17014G19KT 29/22 A2992 RMK A01 T02870224  RH  069%=      5-min Rain = 0
KHA3 241940Z 16017G22KT 29/22 A2992 RMK A01 T02900221  RH  066%=      5-min Rain = 0
KHA3 241941Z 17018G23KT 29/22 A2992 RMK A01 T02900219  RH  065%=      5-min Rain = 0
KHA3 241942Z 17018G24KT 29/22 A2992 RMK A01 T02880220  RH  067%=      5-min Rain = 0
KHA3 241943Z 17019KT 29/22 A2992 RMK A01 T02870217  RH  066%=      5-min Rain = 0
KHA3 241944Z 17016KT 28/22 A2991 RMK A01 T02840218  RH  067%=      5-min Rain = 0
KHA3 241945Z 16014KT 28/22 A2991 RMK A01 T02840218  RH  067%=      5-min Rain = 0
KHA3 241946Z 16015KT 28/22 A2991 RMK A01 T02830220  RH  068%=      5-min Rain = 0
KHA3 241947Z 17017KT 28/22 A2991 RMK A01 T02820218  RH  068%=      5-min Rain = 0
KHA3 241948Z 17018KT 28/22 A2991 RMK A01 T02820217  RH  068%=      5-min Rain = 0
KHA3 241949Z 17018KT 28/22 A2991 RMK A01 T02830217  RH  068%=      5-min Rain = 0
KHA3 241950Z 17019KT 28/22 A299 RMK A01 T02840218  RH  067%=      5-min Rain = 0
KHA3 241951Z 16022KT 29/22 A299 RMK A01 T02860217  RH  066%=      5-min Rain = 0
KHA3 241952Z 16016G21KT 29/22 A299 RMK A01 T02850220  RH  068%=      5-min Rain = 0
KHA3 241953Z 16018KT 29/22 A299 RMK A01 T02850218  RH  067%=      5-min Rain = 0
KHA3 241954Z 16019KT 28/22 A299 RMK A01 T02840216  RH  066%=      5-min Rain = 0
KHA3 241955Z 15017KT 28/22 A299 RMK A01 T02830216  RH  067%=      5-min Rain = 0
KHA3 241956Z 16018KT 28/22 A299 RMK A01 T02830216  RH  067%=      5-min Rain = 0
KHA3 241957Z 16014KT 28/22 A299 RMK A01 T02840220  RH  068%=      5-min Rain = 0
KHA3 241958Z 16020KT 29/22 A299 RMK A01 T02850218  RH  067%=      5-min Rain = 0
KHA3 241959Z 16017KT 29/22 A299 RMK A01 T02860218  RH  067%=      5-min Rain = 0
KHA3 242000Z 16019KT 29/22 A2989 RMK A01 T02860218  RH  067%=      5-min Rain = 0
KHA3 242001Z 16017G22KT 29/22 A2989 RMK A01 T02850218  RH  067%=      5-min Rain = 0
KHA3 242002Z 16019KT 29/22 A2989 RMK A01 T02850217  RH  067%=      5-min Rain = 0
KHA3 242003Z 16021KT 28/22 A2989 RMK A01 T02830216  RH  067%=      5-min Rain = 0
KHA3 242004Z 16021KT 28/22 A2989 RMK A01 T02820215  RH  067%=      5-min Rain = 0
KHA3 242005Z 17018G23KT 28/22 A299 RMK A01 T02820215  RH  067%=      5-min Rain = 0
KHA3 242006Z 16020G25KT 28/21 A299 RMK A01 T02820214  RH  067%=      5-min Rain = 0
KHA3 242007Z 17022KT 28/21 A299 RMK A01 T02810214  RH  067%=      5-min Rain = 0
KHA3 242008Z 17017KT 28/22 A299 RMK A01 T02820215  RH  067%=      5-min Rain = 0
KHA3 242009Z 17019KT 28/22 A299 RMK A01 T02820215  RH  067%=      5-min Rain = 0
KHA3 242010Z 17019KT 28/22 A299 RMK A01 T02820215  RH  067%=      5-min Rain = 0
KHA3 242011Z 17019KT 28/22 A299 RMK A01 T02820215  RH  067%=      5-min Rain = 0
KHA3 242012Z 16018KT 28/22 A299 RMK A01 T02820217  RH  068%=      5-min Rain = 0
KHA3 242013Z 16019KT 28/21 A299 RMK A01 T02800214  RH  067%=      5-min Rain = 0
KHA3 242014Z 15020KT 28/21 A299 RMK A01 T02790214  RH  068%=      5-min Rain = 0
KHA3 242015Z 16020KT 28/21 A299 RMK A01 T02780213  RH  068%=      5-min Rain = 0
KHA3 242016Z 16019KT 28/21 A299 RMK A01 T02770212  RH  068%=      5-min Rain = 0
KHA3 242017Z 16018KT 28/21 A299 RMK A01 T02770214  RH  068%=      5-min Rain = 0
KHA3 242018Z 16018G23KT 28/21 A299 RMK A01 T02770214  RH  069%=      5-min Rain = 0
KHA3 242019Z 17021KT 28/21 A299 RMK A01 T02770213  RH  068%=      5-min Rain = 0
KHA3 242020Z 17018KT 28/21 A299 RMK A01 T02770213  RH  068%=      5-min Rain = 0
KHA3 242021Z 17017G22KT 28/22 A299 RMK A01 T02770216  RH  069%=      5-min Rain = 0
KHA3 242022Z 16019KT 28/22 A299 RMK A01 T02780215  RH  069%=      5-min Rain = 0
KHA3 242023Z 16018KT 28/22 A299 RMK A01 T02770215  RH  069%=      5-min Rain = 0
KHA3 242024Z 16020KT 28/21 A299 RMK A01 T02760214  RH  069%=      5-min Rain = 0
KHA3 242025Z 16018G25KT 28/21 A299 RMK A01 T02750214  RH  069%=      5-min Rain = 0
KHA3 242026Z 17020KT 28/21 A299 RMK A01 T02750214  RH  069%=      5-min Rain = 0
KHA3 242027Z 17020KT 28/21 A299 RMK A01 T02750214  RH  069%=      5-min Rain = 0
KHA3 242028Z 16018KT 27/21 A299 RMK A01 T02740213  RH  069%=      5-min Rain = 0
KHA3 242029Z 17017KT 27/22 A299 RMK A01 T02740215  RH  070%=      5-min Rain = 0
KHA3 242030Z 17018KT 27/22 A299 RMK A01 T02740215  RH  070%=      5-min Rain = 0
KHA3 242031Z 16016KT 27/22 A299 RMK A01 T02730215  RH  070%=      5-min Rain = 0
KHA3 242032Z 16015KT 27/22 A299 RMK A01 T02730215  RH  071%=      5-min Rain = 0
KHA3 242033Z 16016KT 27/22 A299 RMK A01 T02720216  RH  071%=      5-min Rain = 0
KHA3 242034Z 16014KT 27/22 A299 RMK A01 T02710216  RH  072%=      5-min Rain = 0
KHA3 242035Z 16014KT 27/22 A299 RMK A01 T02710218  RH  073%=      5-min Rain = 0
KHA3 242036Z 16014G20KT 27/22 A299 RMK A01 T02700218  RH  073%=      5-min Rain = 0
KHA3 242037Z 17018KT 27/22 A299 RMK A01 T02690216  RH  073%=      5-min Rain = 0
KHA3 242038Z 16022G27KT 27/21 A2989 RMK A01 T02690212  RH  071%=      5-min Rain = 0
KHA3 242039Z 16020KT 27/21 A2989 RMK A01 T02690211  RH  071%=      5-min Rain = 0
KHA3 242040Z 16020KT 27/21 A2989 RMK A01 T02690211  RH  071%=      5-min Rain = 0
KHA3 242041Z 16018G23KT 27/21 A2989 RMK A01 T02700212  RH  071%=      5-min Rain = 0
KHA3 242042Z 16018KT 27/21 A2989 RMK A01 T02700212  RH  071%=      5-min Rain = 0
KHA3 242043Z 16020G25KT 27/21 A2989 RMK A01 T02700211  RH  070%=      5-min Rain = 0
KHA3 242044Z 16019KT 27/21 A2989 RMK A01 T02700211  RH  070%=      5-min Rain = 0
KHA3 242045Z 16019G24KT 27/21 A2989 RMK A01 T02700210  RH  070%=      5-min Rain = 0
KHA3 242046Z 16020KT 27/21 A2989 RMK A01 T02700208  RH  069%=      5-min Rain = 0
KHA3 242047Z 16016G21KT 27/21 A2989 RMK A01 T02700210  RH  070%=      5-min Rain = 0
KHA3 242048Z 16019KT 27/21 A2989 RMK A01 T02690214  RH  072%=      5-min Rain = 0
KHA3 242049Z 16016KT 27/21 A2989 RMK A01 T02650213  RH  073%=      5-min Rain = 0
KHA3 242050Z 16013KT 26/22 A2989 RMK A01 T02630215  RH  075%=      5-min Rain = 0
KHA3 242051Z 16015KT 26/22 A2989 RMK A01 T02600215  RH  076%=      5-min Rain = 0
KHA3 242052Z 15014KT 26/21 A2989 RMK A01 T02600214  RH  076%=      5-min Rain = 0
KHA3 242053Z 15014KT 26/21 A299 RMK A01 T02600214  RH  076%=      5-min Rain = 0
KHA3 242054Z 16013G18KT 26/22 A299 RMK A01 T02600215  RH  076%=      5-min Rain = 0
KHA3 242055Z 16014G20KT 26/21 A299 RMK A01 T02610212  RH  075%=      5-min Rain = 0
KHA3 242056Z 15018G23KT 26/21 A299 RMK A01 T02620211  RH  074%=      5-min Rain = 0
KHA3 242057Z 15017KT 26/21 A2989 RMK A01 T02630210  RH  072%=      5-min Rain = 0
KHA3 242058Z 16017KT 26/21 A2989 RMK A01 T02640210  RH  072%=      5-min Rain = 0
KHA3 242059Z 15016KT 26/21 A2989 RMK A01 T02640209  RH  072%=      5-min Rain = 0
KHA3 242100Z 16015KT 27/21 A2989 RMK A01 T02650210  RH  072%=      5-min Rain = 0
KHA3 242101Z 16014KT 27/21 A2989 RMK A01 T02650210  RH  072%=      5-min Rain = 0
KHA3 242102Z 15012KT 27/21 A2989 RMK A01 T02650211  RH  072%=      5-min Rain = 0
KHA3 242103Z 16016KT 27/21 A2989 RMK A01 T02650211  RH  072%=      5-min Rain = 0
KHA3 242104Z 16017KT 27/21 A2989 RMK A01 T02650210  RH  072%=      5-min Rain = 0
KHA3 242105Z 16016KT 27/21 A2988 RMK A01 T02660210  RH  072%=      5-min Rain = 0
KHA3 242106Z 15013KT 27/21 A2988 RMK A01 T02660211  RH  072%=      5-min Rain = 0
KHA3 242107Z 15012KT 27/21 A2988 RMK A01 T02660213  RH  073%=      5-min Rain = 0
KHA3 242108Z 15013KT 27/21 A2988 RMK A01 T02660213  RH  073%=      5-min Rain = 0
KHA3 242109Z 15013G18KT 27/21 A2988 RMK A01 T02650213  RH  073%=      5-min Rain = 0
KHA3 242110Z 15013KT 27/21 A2988 RMK A01 T02650213  RH  073%=      5-min Rain = 0
KHA3 242111Z 16017KT 27/21 A2988 RMK A01 T02650211  RH  072%=      5-min Rain = 0
KHA3 242112Z 16016KT 27/21 A2988 RMK A01 T02650210  RH  072%=      5-min Rain = 0
KHA3 242113Z 16016KT 27/21 A2988 RMK A01 T02650211  RH  072%=      5-min Rain = 0
KHA3 242114Z 16017KT 27/21 A2989 RMK A01 T02650210  RH  071%=      5-min Rain = 0
KHA3 242115Z 16013KT 27/21 A2989 RMK A01 T02660210  RH  072%=      5-min Rain = 0
KHA3 242116Z 15014KT 27/21 A2988 RMK A01 T02660211  RH  072%=      5-min Rain = 0
KHA3 242117Z 15012KT 27/21 A2988 RMK A01 T02650212  RH  072%=      5-min Rain = 0
KHA3 242118Z 15014KT 27/21 A2988 RMK A01 T02650212  RH  072%=      5-min Rain = 0
KHA3 242119Z 15015KT 27/21 A2988 RMK A01 T02650211  RH  072%=      5-min Rain = 0
KHA3 242120Z 15016KT 27/21 A2988 RMK A01 T02650211  RH  072%=      5-min Rain = 0
KHA3 242121Z 15014KT 27/21 A2987 RMK A01 T02650211  RH  072%=      5-min Rain = 0
KHA3 242122Z 15014KT 26/21 A2987 RMK A01 T02640211  RH  073%=      5-min Rain = 0
KHA3 242123Z 15013KT 26/21 A2987 RMK A01 T02640211  RH  073%=      5-min Rain = 0
KHA3 242124Z 16016KT 26/21 A2987 RMK A01 T02640210  RH  072%=      5-min Rain = 0
KHA3 242125Z 16017KT 26/21 A2987 RMK A01 T02640209  RH  072%=      5-min Rain = 0
KHA3 242126Z 16013G18KT 26/21 A2987 RMK A01 T02640209  RH  072%=      5-min Rain = 0
KHA3 242127Z 16014KT 26/21 A2988 RMK A01 T02640209  RH  072%=      5-min Rain = 0
KHA3 242128Z 16012KT 26/21 A2988 RMK A01 T02630209  RH  072%=      5-min Rain = 0
KHA3 242129Z 16012KT 26/21 A2988 RMK A01 T02630210  RH  073%=      5-min Rain = 0
KHA3 242130Z 15011KT 26/21 A2988 RMK A01 T02620210  RH  073%=      5-min Rain = 0
KHA3 242131Z 15014KT 26/21 A2988 RMK A01 T02620210  RH  073%=      5-min Rain = 0
KHA3 242132Z 15016KT 26/21 A2988 RMK A01 T02620209  RH  072%=      5-min Rain = 0
KHA3 242133Z 15016KT 26/21 A2988 RMK A01 T02620208  RH  072%=      5-min Rain = 0
KHA3 242134Z 15016KT 26/21 A2988 RMK A01 T02620208  RH  072%=      5-min Rain = 0
KHA3 242135Z 15013KT 26/21 A2988 RMK A01 T02620208  RH  072%=      5-min Rain = 0
KHA3 242136Z 15015KT 26/21 A2988 RMK A01 T02620209  RH  072%=      5-min Rain = 0
KHA3 242137Z 16018KT 26/21 A2988 RMK A01 T02620207  RH  072%=      5-min Rain = 0
KHA3 242138Z 16016G21KT 26/21 A2988 RMK A01 T02620207  RH  072%=      5-min Rain = 0
KHA3 242139Z 16018KT 26/21 A2988 RMK A01 T02620207  RH  071%=      5-min Rain = 0
KHA3 242140Z 16016KT 26/21 A2988 RMK A01 T02630207  RH  071%=      5-min Rain = 0
KHA3 242141Z 16017KT 26/21 A2988 RMK A01 T02630207  RH  071%=      5-min Rain = 0
KHA3 242142Z 16014KT 26/21 A2988 RMK A01 T02630207  RH  072%=      5-min Rain = 0
KHA3 242143Z 16018KT 26/21 A2988 RMK A01 T02620207  RH  072%=      5-min Rain = 0
KHA3 242144Z 16017KT 26/21 A2989 RMK A01 T02620206  RH  071%=      5-min Rain = 0
KHA3 242145Z 16015KT 26/21 A2989 RMK A01 T02630206  RH  071%=      5-min Rain = 0
KHA3 242146Z 16015KT 26/21 A2989 RMK A01 T02620207  RH  072%=      5-min Rain = 0
KHA3 242147Z 16012KT 26/21 A2989 RMK A01 T02620207  RH  072%=      5-min Rain = 0
KHA3 242148Z 16015KT 26/21 A2989 RMK A01 T02610207  RH  072%=      5-min Rain = 0
KHA3 242149Z 16016KT 26/21 A2989 RMK A01 T02610207  RH  072%=      5-min Rain = 0
KHA3 242150Z 16016KT 26/21 A2989 RMK A01 T02610206  RH  072%=      5-min Rain = 0
KHA3 242151Z 16016KT 26/21 A2988 RMK A01 T02610206  RH  072%=      5-min Rain = 0
KHA3 242152Z 17014G19KT 26/21 A2988 RMK A01 T02610207  RH  072%=      5-min Rain = 0
KHA3 242153Z 17013G18KT 26/21 A2988 RMK A01 T02610207  RH  072%=      5-min Rain = 0
KHA3 242154Z 17014G20KT 26/21 A2988 RMK A01 T02610208  RH  073%=      5-min Rain = 0
KHA3 242155Z 17015KT 26/21 A2988 RMK A01 T02600207  RH  073%=      5-min Rain = 0
KHA3 242156Z 17013KT 26/21 A2987 RMK A01 T02600207  RH  073%=      5-min Rain = 0
KHA3 242157Z 17014KT 26/21 A2987 RMK A01 T02600208  RH  073%=      5-min Rain = 0
KHA3 242158Z 17014KT 26/21 A2987 RMK A01 T02600207  RH  073%=      5-min Rain = 0
KHA3 242159Z 17013KT 26/21 A2988 RMK A01 T02600207  RH  073%=      5-min Rain = 0
KHA3 242200Z 17012KT 26/21 A2988 RMK A01 T02600208  RH  073%=      5-min Rain = 0
KHA3 242201Z 18017KT 26/21 A2988 RMK A01 T02600208  RH  073%=      5-min Rain = 0
KHA3 242202Z 19011KT 26/21 A2988 RMK A01 T02610207  RH  072%=      5-min Rain = 0
KHA3 242203Z 23011KT 26/21 A2989 RMK A01 T02610208  RH  073%=      5-min Rain = 0
KHA3 242204Z 26018KT 26/20 A299 RMK A01 T02590195  RH  068%=      5-min Rain = 0
KHA3 242205Z 28015KT 24/16 A299 RMK A01 T02390162  RH  062%=      5-min Rain = 0
KHA3 242206Z 30011KT 22/16 A299 RMK A01 T02210159  RH  068%=      5-min Rain = 0
KHA3 242207Z 30012KT 21/16 A299 RMK A01 T02120158  RH  071%=      5-min Rain = 0
KHA3 242208Z 30010KT 21/16 A299 RMK A01 T02060158  RH  074%=      5-min Rain = 0
KHA3 242209Z 29011KT 20/16 A2989 RMK A01 T02020159  RH  076%=      5-min Rain = 0
KHA3 242210Z 29007KT 20/16 A2989 RMK A01 T02010161  RH  078%=      5-min Rain = 0
KHA3 242211Z 29010KT 20/16 A2989 RMK A01 T02000162  RH  079%=      5-min Rain = 0
KHA3 242212Z 30008KT 20/16 A2989 RMK A01 T02000163  RH  079%=      5-min Rain = 0
KHA3 242213Z 30010KT 20/16 A2989 RMK A01 T02000163  RH  079%=      5-min Rain = 0
KHA3 242214Z 30011KT 20/16 A2989 RMK A01 T02000164  RH  080%=      5-min Rain = 0
KHA3 242215Z 30011KT 20/16 A2989 RMK A01 T02000164  RH  080%=      5-min Rain = 0
KHA3 242216Z 28014KT 20/17 A2989 RMK A01 T02000165  RH  080%=      5-min Rain = 0
KHA3 242217Z 27015KT 20/16 A299 RMK A01 T02000164  RH  080%=      5-min Rain = 0
KHA3 242218Z 27018G25KT 20/16 A299 RMK A01 T02020164  RH  079%=      5-min Rain = 0
KHA3 242219Z 28020KT 20/16 A2989 RMK A01 T02030164  RH  078%=      5-min Rain = 0
KHA3 242220Z 28022KT 20/17 A2989 RMK A01 T02020165  RH  079%=      5-min Rain = 0
KHA3 242221Z 29022G27KT 20/17 A2989 RMK A01 T02000165  RH  080%=      5-min Rain = 0
KHA3 242222Z 28022KT 20/17 A2988 RMK A01 T01980165  RH  081%=      5-min Rain = 0
KHA3 242223Z 30020KT 20/17 A2989 RMK A01 T01960166  RH  083%=      5-min Rain = 0
KHA3 242224Z 29020KT 19/17 A2989 RMK A01 T01940166  RH  084%=      5-min Rain = 0
KHA3 242225Z 29022KT 19/17 A299 RMK A01 T01930167  RH  085%=      5-min Rain = 0
KHA3 242226Z 29021KT 19/17 A2991 RMK A01 T01910167  RH  086%=      5-min Rain = 0
KHA3 242227Z 28017KT 19/17 A2991 RMK A01 T01900167  RH  087%=      5-min Rain = 0
KHA3 242228Z 28020G26KT 19/17 A2991 RMK A01 T01890168  RH  088%=      5-min Rain = 0
KHA3 242229Z 28018KT 19/17 A2991 RMK A01 T01870169  RH  089%=      5-min Rain = 0
KHA3 242230Z 28017KT 19/17 A2991 RMK A01 T01860171  RH  091%=      5-min Rain = 0
KHA3 242231Z 27015G24KT 19/17 A2992 RMK A01 T01860172  RH  092%=      5-min Rain = 0
KHA3 242232Z 28016KT 19/17 A2992 RMK A01 T01850172  RH  092%=      5-min Rain = 0
KHA3 242233Z 29015G20KT 18/17 A2992 RMK A01 T01840172  RH  093%=      5-min Rain = 0
KHA3 242234Z 29014G19KT 18/17 A2991 RMK A01 T01840173  RH  093%=      5-min Rain = 0
KHA3 242235Z 29019KT 18/17 A2991 RMK A01 T01840173  RH  093%=      5-min Rain = 0
KHA3 242236Z 29016G21KT 18/17 A2991 RMK A01 T01830172  RH  093%=      5-min Rain = 0
KHA3 242237Z 29017KT 18/17 A2991 RMK A01 T01830172  RH  093%=      5-min Rain = 0
KHA3 242238Z 29014KT 18/17 A2991 RMK A01 T01830172  RH  094%=      5-min Rain = 0
KHA3 242239Z 29014KT 18/17 A2991 RMK A01 T01830173  RH  094%=      5-min Rain = 0
KHA3 242240Z 29015KT 18/17 A2991 RMK A01 T01830174  RH  095%=      5-min Rain = 0
KHA3 242241Z 29016KT 18/18 A2991 RMK A01 T01830175  RH  095%=      5-min Rain = 0
KHA3 242242Z 29016KT 18/18 A2991 RMK A01 T01830175  RH  095%=      5-min Rain = 0
KHA3 242243Z 30015KT 18/18 A2991 RMK A01 T01830175  RH  095%=      5-min Rain = 0
KHA3 242244Z 30015KT 18/18 A2991 RMK A01 T01830175  RH  095%=      5-min Rain = 0
KHA3 242245Z 29016KT 18/18 A2992 RMK A01 T01830176  RH  095%=      5-min Rain = 0
KHA3 242246Z 29016KT 18/18 A2992 RMK A01 T01830176  RH  096%=      5-min Rain = 0
KHA3 242247Z 29012KT 18/18 A2992 RMK A01 T01830176  RH  096%=      5-min Rain = 0
KHA3 242248Z 30012KT 18/18 A2992 RMK A01 T01830176  RH  096%=      5-min Rain = 0
KHA3 242249Z 30010KT 18/18 A2992 RMK A01 T01830177  RH  096%=      5-min Rain = 0
KHA3 242250Z 31012KT 18/18 A2992 RMK A01 T01830177  RH  096%=      5-min Rain = 0.02
KHA3 242251Z 31013KT 18/18 A2991 RMK A01 T01830176  RH  096%=      5-min Rain = 0.02
KHA3 242252Z 31014KT 18/18 A2992 RMK A01 T01830176  RH  096%=      5-min Rain = 0.01
KHA3 242253Z 29015KT 18/18 A2992 RMK A01 T01820175  RH  096%=      5-min Rain = 0.02
KHA3 242254Z 29017KT 18/18 A2993 RMK A01 T01820175  RH  096%=      5-min Rain = 0.05
KHA3 242255Z 29016KT 18/17 A2994 RMK A01 T01810174  RH  096%=      5-min Rain = 0.02
KHA3 242256Z 28015KT 18/17 A2994 RMK A01 T01800174  RH  096%=      5-min Rain = 0.03
KHA3 242257Z 29016KT 18/17 A2994 RMK A01 T01800174  RH  096%=      5-min Rain = 0.04
KHA3 242258Z 29014KT 18/17 A2994 RMK A01 T01780172  RH  096%=      5-min Rain = 0.04
KHA3 242259Z 29013KT 18/17 A2994 RMK A01 T01770172  RH  096%=      5-min Rain = 0.05
KHA3 242300Z 29010KT 18/17 A2993 RMK A01 T01760171  RH  097%=      5-min Rain = 0.06
KHA3 242301Z 29008KT 18/17 A2993 RMK A01 T01760172  RH  097%=      5-min Rain = 0.06
KHA3 242302Z 29009KT 18/17 A2992 RMK A01 T01760171  RH  097%=      5-min Rain = 0.05
KHA3 242303Z 29010KT 18/17 A2992 RMK A01 T01750171  RH  097%=      5-min Rain = 0.04
KHA3 242304Z 29012KT 17/17 A2992 RMK A01 T01740170  RH  098%=      5-min Rain = 0.03
KHA3 242305Z 29013KT 17/17 A2992 RMK A01 T01740171  RH  098%=      5-min Rain = 0.04
KHA3 242306Z 29013KT 17/17 A2992 RMK A01 T01740170  RH  098%=      5-min Rain = 0.03
KHA3 242307Z 28013KT 17/17 A2992 RMK A01 T01730170  RH  098%=      5-min Rain = 0.01
KHA3 242308Z 28013KT 17/17 A2992 RMK A01 T01740171  RH  098%=      5-min Rain = 0
KHA3 242309Z 28013KT 17/17 A2992 RMK A01 T01740171  RH  098%=      5-min Rain = 0.01
KHA3 242310Z 29011KT 17/17 A2992 RMK A01 T01740171  RH  098%=      5-min Rain = 0.01
KHA3 242311Z 29011KT 17/17 A2992 RMK A01 T01740171  RH  098%=      5-min Rain = 0.03
KHA3 242312Z 29011KT 17/17 A2992 RMK A01 T01740171  RH  098%=      5-min Rain = 0.05
KHA3 242313Z 29013KT 17/17 A2992 RMK A01 T01740172  RH  099%=      5-min Rain = 0.03
KHA3 242314Z 29013KT 17/17 A2991 RMK A01 T01740171  RH  099%=      5-min Rain = 0.02
KHA3 242315Z 30012KT 17/17 A2991 RMK A01 T01740171  RH  099%=      5-min Rain = 0.03
KHA3 242316Z 30011KT 17/17 A2991 RMK A01 T01740171  RH  099%=      5-min Rain = 0.04
KHA3 242317Z 29011KT 17/17 A2991 RMK A01 T01740172  RH  099%=      5-min Rain = 0.03
KHA3 242318Z 29010KT 17/17 A2992 RMK A01 T01740172  RH  099%=      5-min Rain = 0.02
KHA3 242319Z 30007KT 17/17 A2992 RMK A01 T01740172  RH  099%=      5-min Rain = 0.02
KHA3 242320Z 30006KT 17/17 A2991 RMK A01 T01740172  RH  099%=      5-min Rain = 0.02
KHA3 242321Z 30006KT 17/17 A2991 RMK A01 T01740172  RH  099%=      5-min Rain = 0.01
KHA3 242322Z 30006KT 17/17 A2992 RMK A01 T01740172  RH  099%=      5-min Rain = 0.01
KHA3 242323Z 31005KT 17/17 A2992 RMK A01 T01740172  RH  099%=      5-min Rain = 0
KHA3 242324Z 31004KT 17/17 A2992 RMK A01 T01740172  RH  099%=      5-min Rain = 0.01
KHA3 242325Z 30003KT 17/17 A2992 RMK A01 T01740172  RH  099%=      5-min Rain = 0.04
KHA3 242326Z 31003KT 17/17 A2991 RMK A01 T01740172  RH  099%=      5-min Rain = 0.03
KHA3 242327Z 30003KT 17/17 A2991 RMK A01 T01740172  RH  099%=      5-min Rain = 0.01
KHA3 242328Z 30002KT 17/17 A2991 RMK A01 T01740172  RH  099%=      5-min Rain = 0.01
KHA3 242329Z 27001KT 17/17 A2991 RMK A01 T01740172  RH  099%=      5-min Rain = 0
KHA3 242330Z 18001KT 17/17 A2991 RMK A01 T01740172  RH  099%=      5-min Rain = 0.01
KHA3 242331Z 17001KT 17/17 A299 RMK A01 T01740172  RH  099%=      5-min Rain = 0
KHA3 242332Z 15001KT 17/17 A299 RMK A01 T01740172  RH  099%=      5-min Rain = 0
KHA3 242333Z 15001KT 17/17 A299 RMK A01 T01740172  RH  099%=      5-min Rain = 0.01
KHA3 242334Z 14001KT 17/17 A299 RMK A01 T01740172  RH  099%=      5-min Rain = 0
KHA3 242335Z 09001KT 17/17 A299 RMK A01 T01730172  RH  099%=      5-min Rain = 0
KHA3 242336Z 07002KT 17/17 A299 RMK A01 T01740172  RH  099%=      5-min Rain = 0
KHA3 242337Z 05003KT 17/17 A299 RMK A01 T01740172  RH  099%=      5-min Rain = 0
KHA3 242338Z 04003KT 17/17 A2989 RMK A01 T01740172  RH  099%=      5-min Rain = 0
KHA3 242339Z 04004KT 17/17 A2989 RMK A01 T01730172  RH  099%=      5-min Rain = 0
KHA3 242340Z 04003KT 17/17 A2989 RMK A01 T01740172  RH  099%=      5-min Rain = 0
KHA3 242341Z 03003KT 17/17 A2989 RMK A01 T01740172  RH  099%=      5-min Rain = 0
KHA3 242342Z 01003KT 17/17 A2989 RMK A01 T01740172  RH  099%=      5-min Rain = 0
KHA3 242343Z 35002KT 17/17 A2989 RMK A01 T01740172  RH  099%=      5-min Rain = 0
KHA3 242344Z 32002KT 17/17 A2989 RMK A01 T01740173  RH  099%=      5-min Rain = 0
KHA3 242345Z 31002KT 17/17 A299 RMK A01 T01740173  RH  099%=      5-min Rain = 0
KHA3 242346Z 31000KT 18/17 A299 RMK A01 T01750173  RH  099%=      5-min Rain = 0
KHA3 242347Z 17000KT 18/17 A299 RMK A01 T01750173  RH  099%=      5-min Rain = 0
KHA3 242348Z 19001KT 18/17 A299 RMK A01 T01750173  RH  099%=      5-min Rain = 0
KHA3 242349Z 21000KT 18/17 A2991 RMK A01 T01750173  RH  099%=      5-min Rain = 0.01
KHA3 242350Z 00000KT 18/17 A299 RMK A01 T01760174  RH  099%=      5-min Rain = 0
KHA3 242351Z 00000KT 18/17 A2991 RMK A01 T01750173  RH  099%=      5-min Rain = 0
KHA3 242352Z 00002KT 18/17 A2991 RMK A01 T01760174  RH  099%=      5-min Rain = 0
KHA3 242353Z 35004KT 18/17 A2991 RMK A01 T01760174  RH  099%=      5-min Rain = 0
KHA3 242354Z 35006KT 18/17 A2991 RMK A01 T01760174  RH  099%=      5-min Rain = 0
KHA3 242355Z 34007KT 18/17 A2991 RMK A01 T01760174  RH  099%=      5-min Rain = 0
KHA3 242356Z 34007KT 18/18 A2991 RMK A01 T01770175  RH  099%=      5-min Rain = 0
KHA3 242357Z 34008KT 18/18 A2991 RMK A01 T01770175  RH  099%=      5-min Rain = 0
KHA3 242358Z 34008KT 18/18 A2991 RMK A01 T01770175  RH  099%=      5-min Rain = 0
KHA3 242359Z 35007KT 18/18 A2991 RMK A01 T01770175  RH  099%=      5-min Rain = 0.02
KHA3 250000Z 36006KT 18/18 A2991 RMK A01 T01770175  RH  099%=      5-min Rain = 0.01
KHA3 250001Z 01006KT 18/18 A2991 RMK A01 T01770175  RH  099%=      5-min Rain = 0
KHA3 250002Z 02005KT 18/18 A2991 RMK A01 T01770175  RH  099%=      5-min Rain = 0
KHA3 250003Z 03005KT 18/17 A2991 RMK A01 T01770174  RH  099%=      5-min Rain = 0.01
KHA3 250004Z 03005KT 18/17 A2991 RMK A01 T01760174  RH  099%=      5-min Rain = 0
KHA3 250005Z 03005KT 18/17 A2991 RMK A01 T01760174  RH  099%=      5-min Rain = 0
KHA3 250006Z 04005KT 18/17 A2991 RMK A01 T01760174  RH  099%=      5-min Rain = 0
KHA3 250007Z 04005KT 18/17 A2992 RMK A01 T01760174  RH  099%=      5-min Rain = 0
KHA3 250008Z 04006KT 18/17 A2992 RMK A01 T01760174  RH  099%=      5-min Rain = 0
KHA3 250009Z 05006KT 18/17 A2991 RMK A01 T01760174  RH  099%=      5-min Rain = 0
KHA3 250010Z 05007KT 18/17 A2991 RMK A01 T01760174  RH  099%=      5-min Rain = 0
KHA3 250011Z 05007KT 18/17 A2991 RMK A01 T01760174  RH  099%=      5-min Rain = 0
KHA3 250012Z 05008KT 18/18 A299 RMK A01 T01760175  RH  099%=      5-min Rain = 0
KHA3 250013Z 05008KT 18/18 A299 RMK A01 T01770175  RH  099%=      5-min Rain = 0
KHA3 250014Z 05008KT 18/18 A299 RMK A01 T01770175  RH  099%=      5-min Rain = 0
KHA3 250015Z 05008KT 18/18 A299 RMK A01 T01770176  RH  099%=      5-min Rain = 0
KHA3 250016Z 05007KT 18/18 A299 RMK A01 T01770175  RH  099%=      5-min Rain = 0
KHA3 250017Z 04006KT 18/18 A299 RMK A01 T01770176  RH  099%=      5-min Rain = 0
KHA3 250018Z 04006KT 18/18 A299 RMK A01 T01770175  RH  099%=      5-min Rain = 0
KHA3 250019Z 04006KT 18/18 A2991 RMK A01 T01770176  RH  099%=      5-min Rain = 0
KHA3 250020Z 04005KT 18/18 A2991 RMK A01 T01770175  RH  099%=      5-min Rain = 0
KHA3 250021Z 04007KT 18/17 A2991 RMK A01 T01760174  RH  099%=      5-min Rain = 0
KHA3 250022Z 04007KT 18/17 A2991 RMK A01 T01760174  RH  099%=      5-min Rain = 0
KHA3 250023Z 05007KT 18/17 A2991 RMK A01 T01750173  RH  099%=      5-min Rain = 0
KHA3 250024Z 05007KT 18/17 A2991 RMK A01 T01750173  RH  099%=      5-min Rain = 0
KHA3 250025Z 05008KT 18/17 A2991 RMK A01 T01750173  RH  099%=      5-min Rain = 0
KHA3 250026Z 05008KT 18/17 A2991 RMK A01 T01750173  RH  099%=      5-min Rain = 0
KHA3 250027Z 05008KT 18/17 A2991 RMK A01 T01750173  RH  099%=      5-min Rain = 0
KHA3 250028Z 05008KT 18/17 A2991 RMK A01 T01750173  RH  099%=      5-min Rain = 0.01
KHA3 250029Z 05007KT 18/17 A299 RMK A01 T01750173  RH  099%=      5-min Rain = 0
KHA3 250030Z 04007KT 18/17 A299 RMK A01 T01750173  RH  099%=      5-min Rain = 0.01
KHA3 250031Z 04007KT 18/17 A299 RMK A01 T01750173  RH  099%=      5-min Rain = 0
KHA3 250032Z 04008KT 18/17 A299 RMK A01 T01750173  RH  099%=      5-min Rain = 0
KHA3 250033Z 04007KT 17/17 A299 RMK A01 T01740172  RH  099%=      5-min Rain = 0.01
KHA3 250034Z 05007KT 18/17 A299 RMK A01 T01750173  RH  099%=      5-min Rain = 0
KHA3 250035Z 05007KT 18/17 A2991 RMK A01 T01750173  RH  099%=      5-min Rain = 0
KHA3 250036Z 05007KT 17/17 A2991 RMK A01 T01740172  RH  099%=      5-min Rain = 0
KHA3 250037Z 05007KT 17/17 A2991 RMK A01 T01740172  RH  099%=      5-min Rain = 0
KHA3 250038Z 05007KT 17/17 A2991 RMK A01 T01740172  RH  099%=      5-min Rain = 0
KHA3 250039Z 04008KT 17/17 A299 RMK A01 T01740172  RH  099%=      5-min Rain = 0
KHA3 250040Z 05008KT 17/17 A299 RMK A01 T01740172  RH  099%=      5-min Rain = 0
KHA3 250041Z 05008KT 17/17 A2991 RMK A01 T01740172  RH  099%=      5-min Rain = 0
KHA3 250042Z 06008KT 17/17 A2991 RMK A01 T01740172  RH  099%=      5-min Rain = 0
KHA3 250043Z 06010KT 17/17 A299 RMK A01 T01740172  RH  099%=      5-min Rain = 0
KHA3 250044Z 07009KT 17/17 A299 RMK A01 T01740172  RH  099%=      5-min Rain = 0
KHA3 250045Z 07010KT 17/17 A299 RMK A01 T01740172  RH  099%=      5-min Rain = 0
KHA3 250046Z 07009KT 17/17 A299 RMK A01 T01740173  RH  099%=      5-min Rain = 0
KHA3 250047Z 06008KT 17/17 A299 RMK A01 T01740173  RH  099%=      5-min Rain = 0
KHA3 250048Z 05008KT 17/17 A299 RMK A01 T01740173  RH  099%=      5-min Rain = 0
KHA3 250049Z 05006KT 18/17 A299 RMK A01 T01750173  RH  099%=      5-min Rain = 0
KHA3 250050Z 04007KT 18/17 A299 RMK A01 T01750173  RH  099%=      5-min Rain = 0
KHA3 250051Z 04006KT 18/17 A299 RMK A01 T01760174  RH  099%=      5-min Rain = 0
KHA3 250052Z 04007KT 18/17 A299 RMK A01 T01760174  RH  099%=      5-min Rain = 0
KHA3 250053Z 04008KT 18/17 A299 RMK A01 T01760174  RH  099%=      5-min Rain = 0
KHA3 250054Z 05006KT 18/17 A299 RMK A01 T01760174  RH  099%=      5-min Rain = 0
KHA3 250055Z 06005KT 18/17 A2991 RMK A01 T01760174  RH  099%=      5-min Rain = 0
KHA3 250056Z 08004KT 18/17 A2991 RMK A01 T01760174  RH  099%=      5-min Rain = 0
KHA3 250057Z 09003KT 18/18 A2992 RMK A01 T01770175  RH  099%=      5-min Rain = 0
KHA3 250058Z 08003KT 18/17 A2992 RMK A01 T01770174  RH  098%=      5-min Rain = 0
KHA3 250059Z 06004KT 18/17 A2992 RMK A01 T01770174  RH  098%=      5-min Rain = 0
KHA3 250100Z 05005KT 18/18 A2991 RMK A01 T01770175  RH  098%=      5-min Rain = 0
KHA3 250101Z 05006KT 18/18 A2991 RMK A01 T01780175  RH  098%=      5-min Rain = 0
KHA3 250102Z 05006KT 18/18 A2991 RMK A01 T01780176  RH  098%=      5-min Rain = 0
KHA3 250103Z 04006KT 18/18 A2991 RMK A01 T01780175  RH  098%=      5-min Rain = 0
KHA3 250104Z 03007KT 18/18 A2991 RMK A01 T01780176  RH  098%=      5-min Rain = 0
KHA3 250105Z 04007KT 18/18 A2991 RMK A01 T01790176  RH  098%=      5-min Rain = 0
KHA3 250106Z 05008KT 18/18 A2991 RMK A01 T01790176  RH  098%=      5-min Rain = 0
KHA3 250107Z 06006KT 18/18 A2991 RMK A01 T01790176  RH  098%=      5-min Rain = 0
KHA3 250108Z 06005KT 18/18 A2992 RMK A01 T01800177  RH  098%=      5-min Rain = 0
KHA3 250109Z 08004KT 18/18 A2992 RMK A01 T01790176  RH  098%=      5-min Rain = 0
KHA3 250110Z 09004KT 18/18 A2992 RMK A01 T01800177  RH  098%=      5-min Rain = 0
KHA3 250111Z 09003KT 18/18 A2992 RMK A01 T01800177  RH  098%=      5-min Rain = 0
KHA3 250112Z 06005KT 18/18 A2992 RMK A01 T01810177  RH  098%=      5-min Rain = 0
KHA3 250113Z 06006KT 18/18 A2992 RMK A01 T01800177  RH  098%=      5-min Rain = 0
KHA3 250114Z 06007KT 18/18 A2991 RMK A01 T01810177  RH  098%=      5-min Rain = 0
KHA3 250115Z 06007KT 18/18 A2991 RMK A01 T01810177  RH  097%=      5-min Rain = 0
KHA3 250116Z 05007KT 18/18 A2991 RMK A01 T01820177  RH  097%=      5-min Rain = 0
KHA3 250117Z 05007KT 18/18 A2991 RMK A01 T01820178  RH  097%=      5-min Rain = 0
KHA3 250118Z 06006KT 18/18 A2991 RMK A01 T01820177  RH  097%=      5-min Rain = 0
KHA3 250119Z 07006KT 18/18 A2992 RMK A01 T01820178  RH  097%=      5-min Rain = 0
KHA3 250120Z 07006KT 18/18 A2992 RMK A01 T01820178  RH  097%=      5-min Rain = 0
KHA3 250121Z 07006KT 18/18 A2992 RMK A01 T01820178  RH  097%=      5-min Rain = 0
KHA3 250122Z 07005KT 18/18 A2992 RMK A01 T01820178  RH  097%=      5-min Rain = 0
KHA3 250123Z 08005KT 18/18 A2992 RMK A01 T01820178  RH  097%=      5-min Rain = 0
KHA3 250124Z 09005KT 18/18 A2992 RMK A01 T01820178  RH  097%=      5-min Rain = 0
KHA3 250125Z 09005KT 18/18 A2992 RMK A01 T01830179  RH  097%=      5-min Rain = 0
KHA3 250126Z 09005KT 18/18 A2992 RMK A01 T01830179  RH  097%=      5-min Rain = 0
KHA3 250127Z 10005KT 18/18 A2992 RMK A01 T01830179  RH  098%=      5-min Rain = 0
KHA3 250128Z 09004KT 18/18 A2992 RMK A01 T01830179  RH  098%=      5-min Rain = 0
KHA3 250129Z 09006KT 18/18 A2992 RMK A01 T01830179  RH  098%=      5-min Rain = 0
KHA3 250130Z 09005KT 18/18 A2992 RMK A01 T01830179  RH  098%=      5-min Rain = 0
KHA3 250131Z 09004KT 18/18 A2992 RMK A01 T01830179  RH  098%=      5-min Rain = 0
KHA3 250132Z 09005KT 18/18 A2992 RMK A01 T01830180  RH  098%=      5-min Rain = 0
KHA3 250133Z 09005KT 18/18 A2992 RMK A01 T01830180  RH  098%=      5-min Rain = 0
KHA3 250134Z 10005KT 18/18 A2992 RMK A01 T01830180  RH  098%=      5-min Rain = 0
KHA3 250135Z 09005KT 18/18 A2992 RMK A01 T01830180  RH  098%=      5-min Rain = 0
KHA3 250136Z 08005KT 18/18 A2992 RMK A01 T01830180  RH  098%=      5-min Rain = 0
KHA3 250137Z 07005KT 18/18 A2992 RMK A01 T01830179  RH  098%=      5-min Rain = 0
KHA3 250138Z 07006KT 18/18 A2992 RMK A01 T01830180  RH  098%=      5-min Rain = 0
KHA3 250139Z 07009KT 18/18 A2992 RMK A01 T01830180  RH  098%=      5-min Rain = 0
KHA3 250140Z 06009KT 18/18 A2992 RMK A01 T01830180  RH  098%=      5-min Rain = 0
KHA3 250141Z 06009KT 18/18 A2992 RMK A01 T01840180  RH  097%=      5-min Rain = 0
KHA3 250142Z 07008KT 18/18 A2992 RMK A01 T01840180  RH  097%=      5-min Rain = 0
KHA3 250143Z 08007KT 18/18 A2992 RMK A01 T01840180  RH  097%=      5-min Rain = 0
KHA3 250144Z 08007KT 19/18 A2992 RMK A01 T01850180  RH  097%=      5-min Rain = 0
KHA3 250145Z 09007KT 18/18 A2992 RMK A01 T01840180  RH  097%=      5-min Rain = 0
KHA3 250146Z 07007KT 19/18 A2992 RMK A01 T01850180  RH  097%=      5-min Rain = 0
KHA3 250147Z 07008KT 19/18 A2992 RMK A01 T01850180  RH  097%=      5-min Rain = 0
KHA3 250148Z 07008KT 19/18 A2992 RMK A01 T01850179  RH  097%=      5-min Rain = 0
KHA3 250149Z 08007KT 18/18 A2992 RMK A01 T01840179  RH  097%=      5-min Rain = 0
KHA3 250150Z 08007KT 19/18 A2992 RMK A01 T01850180  RH  097%=      5-min Rain = 0
KHA3 250151Z 07007KT 19/18 A2992 RMK A01 T01850180  RH  097%=      5-min Rain = 0
KHA3 250152Z 07006KT 19/18 A2992 RMK A01 T01850180  RH  097%=      5-min Rain = 0
KHA3 250153Z 06006KT 19/18 A2992 RMK A01 T01850180  RH  097%=      5-min Rain = 0
KHA3 250154Z 07005KT 19/18 A2992 RMK A01 T01850180  RH  097%=      5-min Rain = 0
KHA3 250155Z 07005KT 19/18 A2992 RMK A01 T01850180  RH  097%=      5-min Rain = 0
KHA3 250156Z 08006KT 19/18 A2992 RMK A01 T01850180  RH  097%=      5-min Rain = 0
KHA3 250157Z 08006KT 19/18 A2992 RMK A01 T01850180  RH  097%=      5-min Rain = 0
KHA3 250158Z 09007KT 19/18 A2992 RMK A01 T01850181  RH  097%=      5-min Rain = 0
KHA3 250159Z 09007KT 19/18 A2992 RMK A01 T01860181  RH  097%=      5-min Rain = 0
KHA3 250200Z 09008KT 19/18 A2992 RMK A01 T01850181  RH  097%=      5-min Rain = 0
KHA3 250201Z 09008KT 19/18 A2992 RMK A01 T01850181  RH  097%=      5-min Rain = 0
KHA3 250202Z 09008KT 19/18 A2993 RMK A01 T01860181  RH  097%=      5-min Rain = 0
KHA3 250203Z 08007KT 19/18 A2993 RMK A01 T01860181  RH  097%=      5-min Rain = 0
KHA3 250204Z 08007KT 19/18 A2993 RMK A01 T01860181  RH  097%=      5-min Rain = 0
KHA3 250205Z 09006KT 19/18 A2993 RMK A01 T01860181  RH  097%=      5-min Rain = 0
KHA3 250206Z 08006KT 19/18 A2993 RMK A01 T01860181  RH  097%=      5-min Rain = 0
KHA3 250207Z 08007KT 19/18 A2993 RMK A01 T01860181  RH  097%=      5-min Rain = 0
KHA3 250208Z 07006KT 19/18 A2993 RMK A01 T01860181  RH  097%=      5-min Rain = 0
KHA3 250209Z 07007KT 19/18 A2993 RMK A01 T01860181  RH  097%=      5-min Rain = 0
KHA3 250210Z 07007KT 19/18 A2993 RMK A01 T01860182  RH  097%=      5-min Rain = 0
KHA3 250211Z 07007KT 19/18 A2993 RMK A01 T01860182  RH  097%=      5-min Rain = 0
KHA3 250212Z 07006KT 19/18 A2993 RMK A01 T01860182  RH  097%=      5-min Rain = 0
KHA3 250213Z 07007KT 19/18 A2993 RMK A01 T01860182  RH  097%=      5-min Rain = 0
KHA3 250214Z 07006KT 19/18 A2993 RMK A01 T01860182  RH  097%=      5-min Rain = 0
KHA3 250215Z 07005KT 19/18 A2994 RMK A01 T01860182  RH  097%=      5-min Rain = 0
KHA3 250216Z 06006KT 19/18 A2994 RMK A01 T01860182  RH  097%=      5-min Rain = 0
KHA3 250217Z 05006KT 19/18 A2994 RMK A01 T01860182  RH  097%=      5-min Rain = 0
KHA3 250218Z 05005KT 19/18 A2994 RMK A01 T01860182  RH  097%=      5-min Rain = 0
KHA3 250219Z 05005KT 19/18 A2994 RMK A01 T01870182  RH  097%=      5-min Rain = 0
KHA3 250220Z 04006KT 19/18 A2994 RMK A01 T01860181  RH  097%=      5-min Rain = 0
KHA3 250221Z 03005KT 19/18 A2995 RMK A01 T01860181  RH  097%=      5-min Rain = 0
KHA3 250222Z 03005KT 19/18 A2995 RMK A01 T01870182  RH  097%=      5-min Rain = 0
KHA3 250223Z 01005KT 19/18 A2995 RMK A01 T01860182  RH  097%=      5-min Rain = 0
KHA3 250224Z 36006KT 19/18 A2995 RMK A01 T01870182  RH  097%=      5-min Rain = 0
KHA3 250225Z 35007KT 19/18 A2996 RMK A01 T01870183  RH  097%=      5-min Rain = 0
KHA3 250226Z 33007KT 19/18 A2996 RMK A01 T01870183  RH  097%=      5-min Rain = 0
KHA3 250227Z 33007KT 19/18 A2996 RMK A01 T01870183  RH  098%=      5-min Rain = 0
KHA3 250228Z 33008KT 19/18 A2996 RMK A01 T01870184  RH  098%=      5-min Rain = 0
KHA3 250229Z 33007KT 19/18 A2996 RMK A01 T01880184  RH  098%=      5-min Rain = 0
KHA3 250230Z 33008KT 19/18 A2996 RMK A01 T01880184  RH  098%=      5-min Rain = 0
KHA3 250231Z 33007KT 19/18 A2996 RMK A01 T01880184  RH  098%=      5-min Rain = 0
KHA3 250232Z 33007KT 19/18 A2996 RMK A01 T01880184  RH  098%=      5-min Rain = 0
KHA3 250233Z 34005KT 19/18 A2996 RMK A01 T01880184  RH  098%=      5-min Rain = 0
KHA3 250234Z 34005KT 19/18 A2995 RMK A01 T01880184  RH  098%=      5-min Rain = 0
KHA3 250235Z 34005KT 19/19 A2995 RMK A01 T01880185  RH  098%=      5-min Rain = 0
KHA3 250236Z 00003KT 19/19 A2995 RMK A01 T01880185  RH  098%=      5-min Rain = 0
KHA3 250237Z 01003KT 19/19 A2995 RMK A01 T01880185  RH  098%=      5-min Rain = 0
KHA3 250238Z 03004KT 19/18 A2995 RMK A01 T01870184  RH  098%=      5-min Rain = 0
KHA3 250239Z 03003KT 19/18 A2995 RMK A01 T01870183  RH  098%=      5-min Rain = 0
KHA3 250240Z 05003KT 19/18 A2995 RMK A01 T01860183  RH  098%=      5-min Rain = 0
KHA3 250241Z 06003KT 19/18 A2995 RMK A01 T01860183  RH  098%=      5-min Rain = 0
KHA3 250242Z 05004KT 19/18 A2995 RMK A01 T01860183  RH  098%=      5-min Rain = 0
KHA3 250243Z 05005KT 19/18 A2995 RMK A01 T01860182  RH  098%=      5-min Rain = 0
KHA3 250244Z 05006KT 19/18 A2994 RMK A01 T01860182  RH  098%=      5-min Rain = 0
KHA3 250245Z 05006KT 19/18 A2994 RMK A01 T01860182  RH  098%=      5-min Rain = 0
KHA3 250246Z 05006KT 19/18 A2994 RMK A01 T01860182  RH  098%=      5-min Rain = 0
KHA3 250247Z 05007KT 19/18 A2994 RMK A01 T01860182  RH  098%=      5-min Rain = 0
KHA3 250248Z 05008KT 19/18 A2994 RMK A01 T01860182  RH  097%=      5-min Rain = 0
KHA3 250249Z 05007KT 19/18 A2993 RMK A01 T01860182  RH  097%=      5-min Rain = 0
KHA3 250250Z 06007KT 19/18 A2993 RMK A01 T01860181  RH  097%=      5-min Rain = 0
KHA3 250251Z 06008KT 19/18 A2993 RMK A01 T01850181  RH  097%=      5-min Rain = 0
KHA3 250252Z 06007KT 19/18 A2993 RMK A01 T01850181  RH  097%=      5-min Rain = 0
KHA3 250253Z 05008KT 19/18 A2993 RMK A01 T01850180  RH  097%=      5-min Rain = 0
KHA3 250254Z 05008KT 19/18 A2993 RMK A01 T01850180  RH  097%=      5-min Rain = 0
KHA3 250255Z 05008KT 18/18 A2993 RMK A01 T01840180  RH  097%=      5-min Rain = 0
KHA3 250256Z 05007KT 18/18 A2993 RMK A01 T01840180  RH  097%=      5-min Rain = 0
KHA3 250257Z 06008KT 18/18 A2993 RMK A01 T01840179  RH  097%=      5-min Rain = 0
KHA3 250258Z 06009KT 18/18 A2993 RMK A01 T01840179  RH  097%=      5-min Rain = 0
KHA3 250259Z 07008KT 18/18 A2993 RMK A01 T01830179  RH  097%=      5-min Rain = 0
KHA3 250300Z 06008KT 18/18 A2993 RMK A01 T01830179  RH  097%=      5-min Rain = 0
KHA3 250301Z 07007KT 18/18 A2993 RMK A01 T01830179  RH  097%=      5-min Rain = 0
KHA3 250302Z 07008KT 18/18 A2993 RMK A01 T01830178  RH  097%=      5-min Rain = 0
KHA3 250303Z 07006KT 18/18 A2993 RMK A01 T01830178  RH  097%=      5-min Rain = 0
KHA3 250304Z 07006KT 18/18 A2993 RMK A01 T01830178  RH  097%=      5-min Rain = 0
KHA3 250305Z 09007KT 18/18 A2993 RMK A01 T01820178  RH  097%=      5-min Rain = 0
KHA3 250306Z 09007KT 18/18 A2993 RMK A01 T01820178  RH  097%=      5-min Rain = 0
KHA3 250307Z 08007KT 18/18 A2993 RMK A01 T01820178  RH  097%=      5-min Rain = 0
KHA3 250308Z 07008KT 18/18 A2993 RMK A01 T01820178  RH  097%=      5-min Rain = 0
KHA3 250309Z 06008KT 18/18 A2993 RMK A01 T01820178  RH  097%=      5-min Rain = 0
KHA3 250310Z 06009KT 18/18 A2992 RMK A01 T01820178  RH  097%=      5-min Rain = 0
KHA3 250311Z 06009KT 18/18 A2992 RMK A01 T01820177  RH  097%=      5-min Rain = 0
KHA3 250312Z 06009KT 18/18 A2992 RMK A01 T01820177  RH  097%=      5-min Rain = 0
KHA3 250313Z 06008KT 18/18 A2992 RMK A01 T01820177  RH  097%=      5-min Rain = 0
KHA3 250314Z 06008KT 18/18 A2992 RMK A01 T01820177  RH  097%=      5-min Rain = 0
KHA3 250315Z 06008KT 18/18 A2993 RMK A01 T01820177  RH  097%=      5-min Rain = 0
KHA3 250316Z 07008KT 18/18 A2993 RMK A01 T01820177  RH  097%=      5-min Rain = 0
KHA3 250317Z 06007KT 18/18 A2993 RMK A01 T01820177  RH  097%=      5-min Rain = 0
KHA3 250318Z 06007KT 18/18 A2993 RMK A01 T01820177  RH  097%=      5-min Rain = 0
KHA3 250319Z 06007KT 18/18 A2993 RMK A01 T01820177  RH  097%=      5-min Rain = 0
KHA3 250320Z 06007KT 18/18 A2993 RMK A01 T01810176  RH  097%=      5-min Rain = 0
KHA3 250321Z 06007KT 18/18 A2993 RMK A01 T01810176  RH  097%=      5-min Rain = 0
KHA3 250322Z 07007KT 18/18 A2993 RMK A01 T01810176  RH  097%=      5-min Rain = 0
KHA3 250323Z 07007KT 18/18 A2993 RMK A01 T01810176  RH  097%=      5-min Rain = 0
KHA3 250324Z 07006KT 18/18 A2993 RMK A01 T01810176  RH  097%=      5-min Rain = 0
KHA3 250325Z 08006KT 18/18 A2993 RMK A01 T01810176  RH  097%=      5-min Rain = 0
KHA3 250326Z 09004KT 18/18 A2993 RMK A01 T01810176  RH  097%=      5-min Rain = 0
KHA3 250327Z 09003KT 18/18 A2993 RMK A01 T01810176  RH  097%=      5-min Rain = 0
KHA3 250328Z 07003KT 18/18 A2993 RMK A01 T01810175  RH  097%=      5-min Rain = 0
KHA3 250329Z 06004KT 18/18 A2993 RMK A01 T01810175  RH  097%=      5-min Rain = 0
KHA3 250330Z 05004KT 18/18 A2994 RMK A01 T01800175  RH  097%=      5-min Rain = 0
KHA3 250331Z 04004KT 18/18 A2994 RMK A01 T01800175  RH  097%=      5-min Rain = 0
KHA3 250332Z 03005KT 18/18 A2994 RMK A01 T01800175  RH  097%=      5-min Rain = 0
KHA3 250333Z 03004KT 18/18 A2994 RMK A01 T01800175  RH  097%=      5-min Rain = 0
KHA3 250334Z 02004KT 18/17 A2994 RMK A01 T01790174  RH  097%=      5-min Rain = 0
KHA3 250335Z 01003KT 18/18 A2994 RMK A01 T01800175  RH  097%=      5-min Rain = 0
KHA3 250336Z 00004KT 18/17 A2994 RMK A01 T01790174  RH  097%=      5-min Rain = 0
KHA3 250337Z 00003KT 18/17 A2994 RMK A01 T01790174  RH  097%=      5-min Rain = 0
KHA3 250338Z 00003KT 18/18 A2995 RMK A01 T01790175  RH  097%=      5-min Rain = 0
KHA3 250339Z 00002KT 18/18 A2995 RMK A01 T01790175  RH  097%=      5-min Rain = 0
KHA3 250340Z 01001KT 18/18 A2995 RMK A01 T01790175  RH  097%=      5-min Rain = 0
KHA3 250341Z 00001KT 18/18 A2995 RMK A01 T01790175  RH  097%=      5-min Rain = 0
KHA3 250342Z 00001KT 18/17 A2995 RMK A01 T01780174  RH  097%=      5-min Rain = 0
KHA3 250343Z 00002KT 18/18 A2995 RMK A01 T01790175  RH  098%=      5-min Rain = 0
KHA3 250344Z 00003KT 18/18 A2995 RMK A01 T01790175  RH  098%=      5-min Rain = 0
KHA3 250345Z 01004KT 18/18 A2995 RMK A01 T01780175  RH  098%=      5-min Rain = 0
KHA3 250346Z 02004KT 18/18 A2995 RMK A01 T01790175  RH  098%=      5-min Rain = 0
KHA3 250347Z 02004KT 18/17 A2995 RMK A01 T01780174  RH  097%=      5-min Rain = 0
KHA3 250348Z 03004KT 18/17 A2995 RMK A01 T01780174  RH  097%=      5-min Rain = 0
KHA3 250349Z 03004KT 18/17 A2995 RMK A01 T01770173  RH  097%=      5-min Rain = 0
KHA3 250350Z 04004KT 18/17 A2995 RMK A01 T01770173  RH  097%=      5-min Rain = 0
KHA3 250351Z 04004KT 18/17 A2995 RMK A01 T01770173  RH  097%=      5-min Rain = 0
KHA3 250352Z 04004KT 18/17 A2995 RMK A01 T01770173  RH  098%=      5-min Rain = 0
KHA3 250353Z 04004KT 18/17 A2995 RMK A01 T01770173  RH  098%=      5-min Rain = 0
KHA3 250354Z 04004KT 18/17 A2995 RMK A01 T01770173  RH  098%=      5-min Rain = 0
KHA3 250355Z 04004KT 18/17 A2995 RMK A01 T01770173  RH  098%=      5-min Rain = 0
KHA3 250356Z 04004KT 18/17 A2995 RMK A01 T01770173  RH  098%=      5-min Rain = 0
KHA3 250357Z 04004KT 18/17 A2995 RMK A01 T01770174  RH  098%=      5-min Rain = 0
KHA3 250358Z 04004KT 18/17 A2995 RMK A01 T01770174  RH  098%=      5-min Rain = 0
KHA3 250359Z 03005KT 18/17 A2995 RMK A01 T01770174  RH  098%=      5-min Rain = 0
KHA3 250400Z 03005KT 18/17 A2995 RMK A01 T01770174  RH  098%=      5-min Rain = 0
KHA3 250401Z 04005KT 18/17 A2995 RMK A01 T01770174  RH  098%=      5-min Rain = 0
KHA3 250402Z 05005KT 18/17 A2996 RMK A01 T01770174  RH  098%=      5-min Rain = 0
KHA3 250403Z 05005KT 18/17 A2996 RMK A01 T01770173  RH  098%=      5-min Rain = 0
KHA3 250404Z 06005KT 18/17 A2996 RMK A01 T01770174  RH  098%=      5-min Rain = 0
KHA3 250405Z 06005KT 18/17 A2996 RMK A01 T01770174  RH  098%=      5-min Rain = 0
KHA3 250406Z 06005KT 18/17 A2996 RMK A01 T01770174  RH  098%=      5-min Rain = 0
KHA3 250407Z 06005KT 18/17 A2996 RMK A01 T01770174  RH  098%=      5-min Rain = 0
KHA3 250408Z 08005KT 18/17 A2996 RMK A01 T01770174  RH  098%=      5-min Rain = 0
KHA3 250409Z 11005KT 18/17 A2997 RMK A01 T01760174  RH  098%=      5-min Rain = 0
KHA3 250410Z 12005KT 18/17 A2997 RMK A01 T01760173  RH  098%=      5-min Rain = 0
KHA3 250411Z 11004KT 18/17 A2997 RMK A01 T01760173  RH  098%=      5-min Rain = 0
KHA3 250412Z 10004KT 18/17 A2997 RMK A01 T01760174  RH  098%=      5-min Rain = 0
KHA3 250413Z 10005KT 18/17 A2997 RMK A01 T01770174  RH  098%=      5-min Rain = 0
KHA3 250414Z 09006KT 18/17 A2997 RMK A01 T01770174  RH  098%=      5-min Rain = 0
KHA3 250415Z 09005KT 18/18 A2997 RMK A01 T01770175  RH  098%=      5-min Rain = 0
KHA3 250416Z 09005KT 18/18 A2997 RMK A01 T01780175  RH  098%=      5-min Rain = 0
KHA3 250417Z 10005KT 18/18 A2997 RMK A01 T01780175  RH  098%=      5-min Rain = 0
KHA3 250418Z 10005KT 18/18 A2997 RMK A01 T01780175  RH  098%=      5-min Rain = 0
KHA3 250419Z 10005KT 18/18 A2997 RMK A01 T01780175  RH  098%=      5-min Rain = 0
KHA3 250420Z 10005KT 18/18 A2997 RMK A01 T01780176  RH  098%=      5-min Rain = 0
KHA3 250421Z 09005KT 18/18 A2997 RMK A01 T01780176  RH  098%=      5-min Rain = 0
KHA3 250422Z 09005KT 18/18 A2996 RMK A01 T01780176  RH  098%=      5-min Rain = 0
KHA3 250423Z 09006KT 18/18 A2996 RMK A01 T01780176  RH  098%=      5-min Rain = 0
KHA3 250424Z 10006KT 18/18 A2996 RMK A01 T01780176  RH  098%=      5-min Rain = 0
KHA3 250425Z 10007KT 18/18 A2997 RMK A01 T01780176  RH  098%=      5-min Rain = 0
KHA3 250426Z 09007KT 18/18 A2997 RMK A01 T01780176  RH  098%=      5-min Rain = 0
KHA3 250427Z 09007KT 18/18 A2997 RMK A01 T01780176  RH  098%=      5-min Rain = 0
KHA3 250428Z 08006KT 18/18 A2997 RMK A01 T01780176  RH  098%=      5-min Rain = 0
KHA3 250429Z 09007KT 18/18 A2997 RMK A01 T01780175  RH  098%=      5-min Rain = 0
KHA3 250430Z 09008KT 18/18 A2997 RMK A01 T01780175  RH  098%=      5-min Rain = 0
KHA3 250431Z 10008KT 18/18 A2997 RMK A01 T01780175  RH  098%=      5-min Rain = 0
KHA3 250432Z 10008KT 18/18 A2997 RMK A01 T01780175  RH  098%=      5-min Rain = 0
KHA3 250433Z 10007KT 18/18 A2997 RMK A01 T01780175  RH  098%=      5-min Rain = 0
KHA3 250434Z 10007KT 18/18 A2997 RMK A01 T01780175  RH  098%=      5-min Rain = 0
KHA3 250435Z 10007KT 18/18 A2997 RMK A01 T01780175  RH  098%=      5-min Rain = 0
KHA3 250436Z 10006KT 18/18 A2997 RMK A01 T01780175  RH  098%=      5-min Rain = 0
KHA3 250437Z 10006KT 18/18 A2997 RMK A01 T01780175  RH  098%=      5-min Rain = 0
KHA3 250438Z 09006KT 18/18 A2997 RMK A01 T01780175  RH  098%=      5-min Rain = 0
KHA3 250439Z 09006KT 18/18 A2997 RMK A01 T01780175  RH  098%=      5-min Rain = 0
KHA3 250440Z 10006KT 18/18 A2997 RMK A01 T01780175  RH  098%=      5-min Rain = 0
KHA3 250441Z 10007KT 18/17 A2997 RMK A01 T01770174  RH  098%=      5-min Rain = 0
KHA3 250442Z 10007KT 18/17 A2997 RMK A01 T01770174  RH  098%=      5-min Rain = 0
KHA3 250443Z 10007KT 18/17 A2997 RMK A01 T01770174  RH  098%=      5-min Rain = 0
KHA3 250444Z 10008KT 18/17 A2997 RMK A01 T01770174  RH  098%=      5-min Rain = 0
KHA3 250445Z 10008KT 18/17 A2997 RMK A01 T01770174  RH  098%=      5-min Rain = 0
KHA3 250446Z 10009KT 18/17 A2997 RMK A01 T01770174  RH  098%=      5-min Rain = 0
KHA3 250447Z 10008KT 18/17 A2997 RMK A01 T01770174  RH  098%=      5-min Rain = 0
KHA3 250448Z 10009KT 18/17 A2997 RMK A01 T01770174  RH  098%=      5-min Rain = 0
KHA3 250449Z 10008KT 18/17 A2997 RMK A01 T01770174  RH  098%=      5-min Rain = 0
KHA3 250450Z 10009KT 18/17 A2997 RMK A01 T01770174  RH  098%=      5-min Rain = 0
KHA3 250451Z 10009KT 18/17 A2996 RMK A01 T01770174  RH  098%=      5-min Rain = 0
KHA3 250452Z 10009KT 18/17 A2996 RMK A01 T01780174  RH  098%=      5-min Rain = 0
KHA3 250453Z 10009KT 18/17 A2996 RMK A01 T01780174  RH  098%=      5-min Rain = 0
KHA3 250454Z 11010KT 18/17 A2996 RMK A01 T01780174  RH  098%=      5-min Rain = 0
KHA3 250455Z 11009KT 18/18 A2997 RMK A01 T01790175  RH  098%=      5-min Rain = 0
KHA3 250456Z 11010KT 18/17 A2997 RMK A01 T01780174  RH  098%=      5-min Rain = 0
KHA3 250457Z 11009KT 18/17 A2997 RMK A01 T01780174  RH  098%=      5-min Rain = 0
KHA3 250458Z 11009KT 18/18 A2996 RMK A01 T01780175  RH  098%=      5-min Rain = 0
KHA3 250459Z 11010KT 18/18 A2996 RMK A01 T01780175  RH  098%=      5-min Rain = 0

Page generated in 0.1269 seconds.